Not logged in
PANGAEA.
Data Publisher for Earth & Environmental Science

Saito, Atsushi (2026): Meteorological synoptical observations from station Tateno (2026-02) [dataset]. Aerological Observatory, Japan Meteorological Agency, PANGAEA, https://doi.org/10.1594/PANGAEA.993240

Always quote citation above when using data! You can download the citation in several formats below.

Published: 2026-03-25DOI registered: 2026-04-23

RIS CitationBibTeX Citation ShareShow MapGoogle Earth

Other version:
Saito, Atsushi (2026): BSRN Station-to-archive file for station Tateno (2026-02) [dataset]. ftp://ftp.bsrn.awi.de/tat/tat0226.dat.gz
Coverage:
Latitude: 36.058100 * Longitude: 140.125800
Date/Time Start: 2026-02-01T00:00:00 * Date/Time End: 2026-02-28T23:59:00
Minimum Elevation: 25.0 m * Maximum Elevation: 25.0 m
Event(s):
TAT (Tateno) * Latitude: 36.058100 * Longitude: 140.125800 * Date/Time: 1996-02-01T00:00:00 * Elevation: 25.0 m * Station info: https://hdl.handle.net/10013/epic.44630.d027, update 2022: Tateno.pdf * Location: Japan * Method/Device: Monitoring station (MONS) * Comment: BSRN station no: 16; Surface type: grass; Topography type: flat, urban; Horizon: doi:10.1594/PANGAEA.669527; Station scientist: Atsushi Saito (saito-atsushi@met.kishou.go.jp)
Parameter(s):
#NameShort NameUnitPrincipal InvestigatorMethod/DeviceComment
DATE/TIMEDate/TimeSaito, AtsushiGeocode
Temperature, airTTT°CSaito, AtsushiThermometer
Pressure, atmosphericPPPPhPaSaito, AtsushiBarometer (BARO)Station pressure reduced to sea level
Dew/frost pointTdTdTd°CSaito, AtsushiHygrometer (HYGRO)
Wind directiondddegSaito, AtsushiAnemometer
Wind speedffm/sSaito, AtsushiAnemometer
Horizontal visibilityVVcodeSaito, AtsushiVisibility sensor
Status:
Curation Level: Enhanced curation (CurationLevelC)
Size:
241843 data points

Data

Download dataset as tab-delimited text — use the following character encoding:


Date/Time

TTT [°C]

PPPP [hPa]

TdTdTd [°C]

dd [deg]

ff [m/s]

VV [code]
2026-02-01T00:002.71013-7.5270270
2026-02-01T00:012.31013-8.1270270
2026-02-01T00:022.21013-8.2280270
2026-02-01T00:032.31013-7.8280270
2026-02-01T00:042.71013-7.5290270
2026-02-01T00:052.91013-7.3290270
2026-02-01T00:062.61013-8.1290270
2026-02-01T00:072.61013-8.1300270
2026-02-01T00:082.61013-7.8300270
2026-02-01T00:092.71013-7.8310270
2026-02-01T00:102.61013-7.8310270
2026-02-01T00:112.61013-7.8310270
2026-02-01T00:122.81013-7.7310270
2026-02-01T00:132.71013-7.8310270
2026-02-01T00:142.51013-7.9300270
2026-02-01T00:152.91013-7.6300270
2026-02-01T00:163.21013-7.3300270
2026-02-01T00:173.31013-7.2290270
2026-02-01T00:183.41013-7.1280270
2026-02-01T00:193.21013-7.6280270
2026-02-01T00:203.01013-8.1270270
2026-02-01T00:213.31013-7.5270270
2026-02-01T00:223.21013-7.6270270
2026-02-01T00:233.11013-8.0270270
2026-02-01T00:243.21013-7.6260270
2026-02-01T00:253.01013-8.1260270
2026-02-01T00:263.11013-8.0270270
2026-02-01T00:273.21013-7.6270270
2026-02-01T00:283.51013-7.3280270
2026-02-01T00:293.31013-7.8290270
2026-02-01T00:303.51013-7.6300270
2026-02-01T00:313.41013-7.7300270
2026-02-01T00:323.51013-7.6310270
2026-02-01T00:333.81013-7.3310270
2026-02-01T00:344.01013-7.1310270
2026-02-01T00:354.01013-7.1320270
2026-02-01T00:363.91013-7.5320270
2026-02-01T00:374.11013-7.3320270
2026-02-01T00:384.21013-7.3310270
2026-02-01T00:394.21013-7.6310270
2026-02-01T00:404.01013-7.7310270
2026-02-01T00:414.21013-7.3310270
2026-02-01T00:424.11013-7.7300270
2026-02-01T00:434.11013-7.7310370
2026-02-01T00:444.21013-7.6310370
2026-02-01T00:454.11013-7.7310270
2026-02-01T00:464.21013-7.6310270
2026-02-01T00:474.21013-7.6310370
2026-02-01T00:484.21013-7.6310370
2026-02-01T00:494.51013-7.3310370
2026-02-01T00:504.81013-7.0310270
2026-02-01T00:514.81013-7.3300370
2026-02-01T00:524.51013-7.6300370
2026-02-01T00:534.21013-7.9290270
2026-02-01T00:544.61013-7.2300270
2026-02-01T00:554.81013-7.0290270
2026-02-01T00:565.01013-6.8290270
2026-02-01T00:574.71013-7.7290270
2026-02-01T00:584.91013-7.6290370
2026-02-01T00:595.01013-7.5290370
2026-02-01T01:004.91013-7.6290370
2026-02-01T01:014.81013-7.7290370
2026-02-01T01:024.91013-7.6300370
2026-02-01T01:034.91013-7.6300370
2026-02-01T01:045.01013-7.5300370
2026-02-01T01:055.01013-7.5300370
2026-02-01T01:065.21013-7.3310370
2026-02-01T01:075.11013-7.4300370
2026-02-01T01:085.11013-7.4300269
2026-02-01T01:095.21013-7.3300269
2026-02-01T01:105.11013-7.4290270
2026-02-01T01:115.31013-7.2290270
2026-02-01T01:125.41013-7.1290270
2026-02-01T01:135.71013-6.8300270
2026-02-01T01:145.61013-7.3300270
2026-02-01T01:155.61013-7.3300370
2026-02-01T01:166.11013-6.5300270
2026-02-01T01:175.91013-7.0300369
2026-02-01T01:186.11013-6.8300370
2026-02-01T01:195.71013-7.5300369
2026-02-01T01:205.71013-7.2300368
2026-02-01T01:216.01013-6.9310268
2026-02-01T01:225.81013-7.1300270
2026-02-01T01:235.81013-7.1290270
2026-02-01T01:246.31013-6.6290269
2026-02-01T01:256.11013-7.1300270
2026-02-01T01:265.81013-7.4300370
2026-02-01T01:275.91013-7.3300270
2026-02-01T01:285.71013-7.5300270
2026-02-01T01:295.81013-7.1300270
2026-02-01T01:306.21013-6.7290270
2026-02-01T01:316.01013-7.2290270
2026-02-01T01:326.21013-6.7290270
2026-02-01T01:336.71013-6.3290270
2026-02-01T01:346.91013-6.4290270
2026-02-01T01:357.21013-6.2280270
2026-02-01T01:367.11013-6.6270270
2026-02-01T01:377.01013-6.7270270
2026-02-01T01:386.81013-7.2270370
2026-02-01T01:396.31013-7.7270270
2026-02-01T01:406.51013-7.1270270
2026-02-01T01:416.81013-6.5270270
2026-02-01T01:426.71013-7.0270270
2026-02-01T01:436.91013-6.8270270
2026-02-01T01:447.41013-6.3270270
2026-02-01T01:457.21013-6.9270270
2026-02-01T01:467.41013-6.7270270
2026-02-01T01:477.21013-6.9270270
2026-02-01T01:487.31013-6.8270270
2026-02-01T01:497.21013-6.9270270
2026-02-01T01:507.11013-6.9280270
2026-02-01T01:517.31013-6.8280270
2026-02-01T01:527.21013-6.9280270
2026-02-01T01:537.81013-6.3280270
2026-02-01T01:548.21013-6.0280270
2026-02-01T01:558.31013-6.2280270
2026-02-01T01:568.31013-6.6280270
2026-02-01T01:578.21013-6.7280270
2026-02-01T01:588.11013-6.8280270
2026-02-01T01:597.91013-7.4290270
2026-02-01T02:007.91013-7.0290270
2026-02-01T02:017.81013-7.5290270
2026-02-01T02:028.01013-6.9300270
2026-02-01T02:037.71013-7.2300270
2026-02-01T02:048.01013-6.9300270
2026-02-01T02:057.61013-7.6300270
2026-02-01T02:067.51013-7.7300270
2026-02-01T02:077.91013-7.0300270
2026-02-01T02:088.01013-6.9300270
2026-02-01T02:098.11013-7.2290370
2026-02-01T02:108.31013-7.0290370
2026-02-01T02:118.21013-7.1290370
2026-02-01T02:128.51013-6.8280370
2026-02-01T02:138.21013-7.5280370
2026-02-01T02:148.11013-7.6270370
2026-02-01T02:158.41013-6.9270370
2026-02-01T02:168.11013-7.2270370
2026-02-01T02:178.21013-7.1270370
2026-02-01T02:188.71013-6.7260370
2026-02-01T02:198.61012-6.8260370
2026-02-01T02:208.61012-6.8260370
2026-02-01T02:219.21012-6.2250370
2026-02-01T02:228.91012-6.9250370
2026-02-01T02:238.61012-7.2250370
2026-02-01T02:248.41012-7.3260370
2026-02-01T02:258.31012-7.0260370
2026-02-01T02:268.51012-6.8260370
2026-02-01T02:279.11012-6.3260370
2026-02-01T02:288.81012-7.0260370
2026-02-01T02:298.91012-6.9270370
2026-02-01T02:308.61012-7.2280370
2026-02-01T02:318.81012-6.6280370
2026-02-01T02:328.91012-6.5280370
2026-02-01T02:339.41012-6.0280369
2026-02-01T02:349.21012-6.6280369
2026-02-01T02:359.21012-6.6290369
2026-02-01T02:368.71012-7.1290269
2026-02-01T02:378.91012-6.9290270
2026-02-01T02:388.81012-7.0290270
2026-02-01T02:399.01012-6.8280270
2026-02-01T02:409.21012-6.6280270
2026-02-01T02:419.41012-6.4270370
2026-02-01T02:429.31012-6.5270270
2026-02-01T02:439.31012-6.5270370
2026-02-01T02:448.91012-6.9270270
2026-02-01T02:459.61012-5.9270270
2026-02-01T02:469.31012-6.5270370
2026-02-01T02:479.21012-6.6270370
2026-02-01T02:4810.11012-5.4260370
2026-02-01T02:4910.41012-5.6260370
2026-02-01T02:509.81012-6.5260370
2026-02-01T02:519.51012-6.8270370
2026-02-01T02:529.61012-6.7270370
2026-02-01T02:539.61012-6.3270370
2026-02-01T02:549.11012-7.1270370
2026-02-01T02:558.51012-7.2270370
2026-02-01T02:568.71012-6.7270370
2026-02-01T02:579.31012-6.1270370
2026-02-01T02:589.31012-6.5270370
2026-02-01T02:599.41012-6.4280270
2026-02-01T03:009.61012-6.3280370
2026-02-01T03:019.41012-6.9280370
2026-02-01T03:029.81012-6.1280370
2026-02-01T03:039.71011-6.6280370
2026-02-01T03:049.21011-7.0290270
2026-02-01T03:059.11011-7.1290270
2026-02-01T03:069.71011-6.2280270
2026-02-01T03:079.31011-6.9290370
2026-02-01T03:089.11011-7.1290270
2026-02-01T03:099.11011-7.1290270
2026-02-01T03:108.71011-7.5280270
2026-02-01T03:118.91011-7.3270270
2026-02-01T03:129.21011-6.6270270
2026-02-01T03:139.51011-6.4270270
2026-02-01T03:149.21011-7.0260270
2026-02-01T03:159.21011-7.5260270
2026-02-01T03:169.41011-7.3250270
2026-02-01T03:1710.01011-6.3250270
2026-02-01T03:189.71011-7.0250370
2026-02-01T03:199.41011-7.3250370
2026-02-01T03:209.51011-7.2260370
2026-02-01T03:219.31011-7.4260370
2026-02-01T03:229.31011-7.4260370
2026-02-01T03:239.51011-7.2250370
2026-02-01T03:249.61011-7.1250370
2026-02-01T03:259.51011-7.2260370
2026-02-01T03:269.41011-7.3260370
2026-02-01T03:279.31011-7.4250370
2026-02-01T03:289.31011-7.4250370
2026-02-01T03:299.71011-6.6250370
2026-02-01T03:309.61011-7.1240370
2026-02-01T03:319.71011-7.0240370
2026-02-01T03:329.41011-7.7240270
2026-02-01T03:339.61011-7.6240270
2026-02-01T03:349.91011-7.3240270
2026-02-01T03:3510.01011-7.2240270
2026-02-01T03:3610.31011-6.9240270
2026-02-01T03:3710.11011-7.6240270
2026-02-01T03:3810.21011-7.0240270
2026-02-01T03:399.71011-7.9240370
2026-02-01T03:4010.01011-7.2240370
2026-02-01T03:419.91011-7.3250370
2026-02-01T03:429.81011-7.4250370
2026-02-01T03:439.91011-7.3250370
2026-02-01T03:4410.01011-7.7250370
2026-02-01T03:459.91011-8.2250370
2026-02-01T03:4610.01011-7.7250370
2026-02-01T03:4710.11011-7.6260370
2026-02-01T03:4810.11011-7.6260370
2026-02-01T03:499.81011-7.8260370
2026-02-01T03:5010.01011-7.7260370
2026-02-01T03:519.71011-8.4270370
2026-02-01T03:529.91011-7.7280370
2026-02-01T03:539.71011-7.9290370
2026-02-01T03:549.71011-7.9290370
2026-02-01T03:559.41011-8.2290370
2026-02-01T03:569.81011-7.8290370
2026-02-01T03:579.81011-7.8290370
2026-02-01T03:589.91011-7.7290370
2026-02-01T03:599.81011-8.3300370
2026-02-01T04:009.81011-8.3300370
2026-02-01T04:019.61011-8.5300370
2026-02-01T04:029.81011-7.8300370
2026-02-01T04:0310.21011-7.5290370
2026-02-01T04:0410.01011-8.1290370
2026-02-01T04:0510.41011-7.8290370
2026-02-01T04:0610.61011-7.6290370
2026-02-01T04:0710.61011-7.6290370
2026-02-01T04:0810.91011-7.4290370
2026-02-01T04:0910.21010-8.4290370
2026-02-01T04:1010.01010-8.6280270
2026-02-01T04:119.61010-9.5290270
2026-02-01T04:1210.31010-7.9280270
2026-02-01T04:1310.51010-8.2280270
2026-02-01T04:1410.31010-8.4280270
2026-02-01T04:1510.31010-8.4280270
2026-02-01T04:1610.11010-8.5270270
2026-02-01T04:1710.91010-7.4270270
2026-02-01T04:1810.81010-7.9270370
2026-02-01T04:1910.61010-8.1270370
2026-02-01T04:2010.61010-8.6270370
2026-02-01T04:2110.51010-8.7260370
2026-02-01T04:2210.31010-8.9260370
2026-02-01T04:2310.41010-8.8260470
2026-02-01T04:2410.11010-9.0260470
2026-02-01T04:259.91010-8.7260470
2026-02-01T04:2610.21010-8.4260470
2026-02-01T04:2710.61010-8.1260470
2026-02-01T04:2810.51010-8.2260470
2026-02-01T04:2910.61010-8.1260370
2026-02-01T04:3010.01010-8.6260370
2026-02-01T04:3110.21010-8.4260370
2026-02-01T04:3210.51010-8.2260370
2026-02-01T04:3310.71010-8.0260470
2026-02-01T04:3410.51010-8.7260470
2026-02-01T04:3510.41010-8.8260470
2026-02-01T04:3610.11010-9.0260470
2026-02-01T04:3710.31010-8.9270470
2026-02-01T04:3810.21010-8.9260470
2026-02-01T04:3910.01010-9.1260470
2026-02-01T04:4010.01010-9.1260470
2026-02-01T04:419.71010-9.4250470
2026-02-01T04:429.81010-9.3250470
2026-02-01T04:4310.11010-9.0250470
2026-02-01T04:4410.21010-8.9250470
2026-02-01T04:4510.21010-8.9250470
2026-02-01T04:4610.11010-9.0250370
2026-02-01T04:4710.01010-9.1250370
2026-02-01T04:4810.31010-8.9250370
2026-02-01T04:4910.41010-8.8250370
2026-02-01T04:5010.21010-9.5250370
2026-02-01T04:5110.11010-9.5260370
2026-02-01T04:5210.51010-8.7250270
2026-02-01T04:5310.71010-9.0260270
2026-02-01T04:5410.51010-9.2250370
2026-02-01T04:5510.71010-9.0260370
2026-02-01T04:5610.81010-8.4260370
2026-02-01T04:5710.41010-9.3260370
2026-02-01T04:5810.31010-9.4260370
2026-02-01T04:5910.21010-9.5260370
2026-02-01T05:0010.41010-8.8260470
2026-02-01T05:0110.31010-9.4270470
2026-02-01T05:029.91010-9.7280470
2026-02-01T05:039.81010-9.3290470
2026-02-01T05:049.81010-9.3300370
2026-02-01T05:0510.11010-9.0300370
2026-02-01T05:069.81010-9.3310370
2026-02-01T05:0710.01010-9.1310370
2026-02-01T05:0810.21010-8.9300370
2026-02-01T05:0910.11010-9.0300370
2026-02-01T05:1010.21010-8.9290370
2026-02-01T05:1110.11010-9.0290370
2026-02-01T05:129.91010-9.2270370
2026-02-01T05:1310.11010-9.0260370
2026-02-01T05:1410.11010-9.0250370
2026-02-01T05:1510.01010-9.1240470
2026-02-01T05:1610.21010-8.9240470
2026-02-01T05:1710.11010-9.0230470
2026-02-01T05:1810.01010-9.1230470
2026-02-01T05:199.91010-9.2230470
2026-02-01T05:2010.01010-9.1230470
2026-02-01T05:219.91010-9.2230470
2026-02-01T05:229.91010-9.2240470
2026-02-01T05:239.91010-9.2240470
2026-02-01T05:249.91010-9.2250470
2026-02-01T05:259.61010-9.5260370
2026-02-01T05:269.61010-9.5270370
2026-02-01T05:279.81010-9.3280370
2026-02-01T05:289.91010-9.2290270
2026-02-01T05:299.71010-9.4300270
2026-02-01T05:309.61010-9.5310270
2026-02-01T05:319.51010-9.5310270
2026-02-01T05:329.51010-9.5300270
2026-02-01T05:339.91010-9.2300270
2026-02-01T05:3410.51010-8.7290270
2026-02-01T05:3510.51010-8.7270270
2026-02-01T05:3610.51010-8.7260270
2026-02-01T05:3710.41010-9.3250270
2026-02-01T05:3810.71010-8.5240270
2026-02-01T05:3910.61010-9.1240270
2026-02-01T05:4010.51010-9.2230270
2026-02-01T05:4110.51010-9.2230370
2026-02-01T05:4210.51010-9.2240370
2026-02-01T05:4310.61010-9.1240370
2026-02-01T05:4410.61010-9.1250370
2026-02-01T05:4510.61010-9.1250370
2026-02-01T05:4610.71010-8.5260370
2026-02-01T05:4710.81010-9.0260370
2026-02-01T05:4810.71010-9.0260370
2026-02-01T05:4910.71010-9.0250370
2026-02-01T05:5010.61010-9.1250370
2026-02-01T05:5110.41010-9.3250370
2026-02-01T05:5210.31010-9.4250370
2026-02-01T05:5310.21010-9.5250370
2026-02-01T05:5410.31010-9.4250370
2026-02-01T05:5510.31010-9.4240370
2026-02-01T05:5610.21010-9.5240370
2026-02-01T05:5710.11010-9.5240370
2026-02-01T05:5810.31010-9.4240270
2026-02-01T05:5910.31010-9.4240270
2026-02-01T06:0010.41010-9.3240370
2026-02-01T06:0110.61010-8.6250270
2026-02-01T06:0210.71010-9.0250270
2026-02-01T06:0311.01010-8.3250270
2026-02-01T06:0410.61011-9.1260270
2026-02-01T06:0510.41011-9.3260270
2026-02-01T06:0610.61010-9.1260270
2026-02-01T06:0710.31010-9.4260270
2026-02-01T06:0810.61010-9.1260270
2026-02-01T06:0910.71010-9.0260270
2026-02-01T06:1010.51010-9.2270270
2026-02-01T06:1110.41010-9.3270270
2026-02-01T06:1210.41011-9.3280270
2026-02-01T06:1310.31011-9.4270270
2026-02-01T06:1410.21011-9.5270270
2026-02-01T06:1510.21011-9.5270270
2026-02-01T06:1610.01011-9.6280270
2026-02-01T06:1710.01011-9.6290270
2026-02-01T06:1810.11011-9.0300270
2026-02-01T06:1910.01011-9.1310270
2026-02-01T06:2010.11011-9.0310270
2026-02-01T06:2110.31011-8.9300270
2026-02-01T06:2210.31011-9.4290270
2026-02-01T06:2310.21011-9.5290270
2026-02-01T06:2410.41011-8.8290270
2026-02-01T06:2510.31011-9.4290270
2026-02-01T06:2610.21011-9.5280370
2026-02-01T06:2710.11011-9.5280370
2026-02-01T06:2810.01011-9.1270370
2026-02-01T06:2910.31011-8.9260270
2026-02-01T06:3010.41011-8.8260270
2026-02-01T06:3110.31011-8.9260270
2026-02-01T06:3210.21011-8.9260270
2026-02-01T06:3310.31011-8.9270270
2026-02-01T06:3410.21011-8.9270270
2026-02-01T06:3510.21011-8.9280170
2026-02-01T06:3610.11011-9.0280170
2026-02-01T06:3710.21011-8.9280170
2026-02-01T06:3810.31011-8.9280170
2026-02-01T06:3910.41011-8.8280170
2026-02-01T06:4010.31011-8.9270270
2026-02-01T06:4110.31011-8.9270270
2026-02-01T06:4210.21011-8.9270270
2026-02-01T06:4310.11011-9.0270270
2026-02-01T06:4410.21011-8.9260270
2026-02-01T06:4510.31011-8.9260270
2026-02-01T06:4610.21011-8.9260270
2026-02-01T06:4710.11011-9.0250270
2026-02-01T06:4810.01011-9.1250270
2026-02-01T06:4910.01011-9.1250270
2026-02-01T06:5010.01011-9.1250270
2026-02-01T06:5110.01011-9.1250270
2026-02-01T06:529.91011-9.2250170
2026-02-01T06:539.81011-9.3260170
2026-02-01T06:549.81011-8.8270170
2026-02-01T06:559.91011-9.2260170
2026-02-01T06:569.91011-9.2260170
2026-02-01T06:579.91011-9.2270170
2026-02-01T06:589.81011-9.3270170
2026-02-01T06:599.81011-9.3280170
2026-02-01T07:009.81011-9.3280170
2026-02-01T07:019.81011-9.3280170
2026-02-01T07:029.81011-9.3280170
2026-02-01T07:039.81011-9.3270170
2026-02-01T07:049.81011-9.3260170
2026-02-01T07:059.71011-9.4260170
2026-02-01T07:069.81011-8.8260170
2026-02-01T07:079.91011-9.2260170
2026-02-01T07:0810.01011-8.6260170
2026-02-01T07:0910.01011-9.1250170
2026-02-01T07:1010.01011-9.1240170
2026-02-01T07:1110.01011-9.1240170
2026-02-01T07:1210.01011-9.1240270
2026-02-01T07:1310.01011-9.1240270
2026-02-01T07:149.91011-9.2230270
2026-02-01T07:159.81011-8.8230270
2026-02-01T07:169.71011-8.9230270
2026-02-01T07:179.61011-9.0220270
2026-02-01T07:189.61011-9.0220270
2026-02-01T07:199.71011-8.9220270
2026-02-01T07:209.81011-8.8210170
2026-02-01T07:219.81011-8.8200170
2026-02-01T07:229.81011-8.8200170
2026-02-01T07:239.71011-8.9190170
2026-02-01T07:249.71011-8.9190170
2026-02-01T07:259.41011-9.1190170
2026-02-01T07:269.51011-9.0190170
2026-02-01T07:279.61011-9.0190170
2026-02-01T07:289.51011-9.0200170
2026-02-01T07:299.51011-9.0200170
2026-02-01T07:309.61011-9.0200170
2026-02-01T07:319.51011-9.0200170
2026-02-01T07:329.31011-8.7210170
2026-02-01T07:339.31011-8.7210170
2026-02-01T07:349.61011-9.0210170
2026-02-01T07:359.31011-8.7200170
2026-02-01T07:368.71011-8.8200170
2026-02-01T07:378.91011-8.6200170
2026-02-01T07:388.91011-8.6200170
2026-02-01T07:398.81011-8.7200170
2026-02-01T07:408.61011-8.9190170
2026-02-01T07:418.91011-8.6180170
2026-02-01T07:428.91011-8.6180170
2026-02-01T07:438.91011-8.6170170
2026-02-01T07:448.91011-8.6170170
2026-02-01T07:458.51011-9.0160170
2026-02-01T07:468.01011-8.9160170
2026-02-01T07:477.71011-8.8160170
2026-02-01T07:487.81011-8.3160170
2026-02-01T07:498.01011-8.1160170
2026-02-01T07:507.91011-8.2160170
2026-02-01T07:518.11011-8.4160170
2026-02-01T07:528.31011-8.2160170
2026-02-01T07:538.11011-8.4160170
2026-02-01T07:548.01011-8.5170170
2026-02-01T07:558.21011-8.3170170
2026-02-01T07:568.11011-8.4170170
2026-02-01T07:577.91011-8.6170170
2026-02-01T07:587.91011-8.6170170
2026-02-01T07:597.81011-8.7160170
2026-02-01T08:008.01011-8.5160170
2026-02-01T08:017.91011-8.6160170
2026-02-01T08:027.71011-8.4160170
2026-02-01T08:037.91011-8.2160170
2026-02-01T08:047.81011-8.3160170
2026-02-01T08:057.21011-8.4160170
2026-02-01T08:067.11011-8.5160170
2026-02-01T08:077.21011-8.0160170
2026-02-01T08:087.31011-7.9160170
2026-02-01T08:097.21011-8.0160170
2026-02-01T08:107.11011-8.1150170
2026-02-01T08:116.81011-8.0150170
2026-02-01T08:126.11011-7.8150170
2026-02-01T08:136.21011-7.4150170
2026-02-01T08:146.21011-7.4150170
2026-02-01T08:156.11011-7.5150170
2026-02-01T08:166.11012-7.1150170
2026-02-01T08:176.11012-7.1150170
2026-02-01T08:186.11012-7.1150170
2026-02-01T08:196.21012-7.1160170
2026-02-01T08:206.31012-7.3160170
2026-02-01T08:216.21012-7.4160170
2026-02-01T08:225.91012-7.7160170
2026-02-01T08:236.01012-7.6170170
2026-02-01T08:245.91012-7.7170170
2026-02-01T08:255.91012-7.7170170
2026-02-01T08:266.01012-7.6170170
2026-02-01T08:276.01012-7.6170170
2026-02-01T08:285.91012-7.7170170
2026-02-01T08:295.41012-8.1170170
2026-02-01T08:305.11012-8.0170170
2026-02-01T08:315.01012-7.8170170
2026-02-01T08:325.01012-7.8170170
2026-02-01T08:334.91012-7.9170170
2026-02-01T08:345.01012-7.8170170
2026-02-01T08:355.21012-7.6170170
2026-02-01T08:365.21012-7.6170170
2026-02-01T08:375.11012-7.7170170
2026-02-01T08:385.11012-7.7170170
2026-02-01T08:395.11012-7.7170170
2026-02-01T08:405.31012-7.5170170
2026-02-01T08:415.31012-7.5180170
2026-02-01T08:425.01012-7.8180170
2026-02-01T08:434.81012-8.0180170
2026-02-01T08:444.81012-7.7180170
2026-02-01T08:454.81012-7.7180170
2026-02-01T08:464.91012-7.6180170
2026-02-01T08:474.81012-7.7180170
2026-02-01T08:485.01012-7.5180170
2026-02-01T08:495.01012-7.5180170
2026-02-01T08:504.81012-7.7180170
2026-02-01T08:514.71012-7.7180170
2026-02-01T08:525.01012-7.5180170
2026-02-01T08:534.61012-7.8180170
2026-02-01T08:544.71012-7.4180170
2026-02-01T08:554.51012-7.6180170
2026-02-01T08:564.81012-7.3180170
2026-02-01T08:574.61012-7.8190170
2026-02-01T08:584.21012-7.9190170
2026-02-01T08:594.11012-8.0190170
2026-02-01T09:004.21012-7.6190170
2026-02-01T09:014.01012-7.7190170
2026-02-01T09:024.21012-7.6190170
2026-02-01T09:034.11012-7.7190170
2026-02-01T09:044.01012-7.4190170
2026-02-01T09:054.01012-7.4190170
2026-02-01T09:064.01012-7.4190170
2026-02-01T09:074.21012-7.3180170
2026-02-01T09:083.91012-7.5180170
2026-02-01T09:093.91012-7.5180170
2026-02-01T09:104.21012-7.3180170
2026-02-01T09:114.21012-7.3180170
2026-02-01T09:124.01012-7.7170170
2026-02-01T09:134.11012-7.3170170
2026-02-01T09:144.01012-7.4170170
2026-02-01T09:153.91012-7.5170170
2026-02-01T09:164.01012-7.4170170
2026-02-01T09:174.11012-7.3170170
2026-02-01T09:184.11012-7.3170170
2026-02-01T09:193.81012-7.6180170
2026-02-01T09:203.91012-7.5180170
2026-02-01T09:213.61012-7.8180170
2026-02-01T09:223.41012-8.0180170
2026-02-01T09:233.41012-7.7190170
2026-02-01T09:243.41012-7.7190170
2026-02-01T09:253.51012-7.6180170
2026-02-01T09:263.41012-7.7180170
2026-02-01T09:273.21012-7.9180070
2026-02-01T09:283.11012-7.4180070
2026-02-01T09:293.51012-7.3180070
2026-02-01T09:303.71012-7.10070
2026-02-01T09:313.61012-7.50070
2026-02-01T09:323.71012-7.40070
2026-02-01T09:333.71012-7.40070
2026-02-01T09:343.61012-7.50070
2026-02-01T09:353.51012-7.30070
2026-02-01T09:363.51012-7.30070
2026-02-01T09:373.41012-7.40070
2026-02-01T09:383.61012-6.90070
2026-02-01T09:393.61012-6.90070
2026-02-01T09:403.41013-7.10070
2026-02-01T09:413.31013-7.50070
2026-02-01T09:423.31013-7.50070
2026-02-01T09:433.01013-7.50070
2026-02-01T09:443.01013-6.90070
2026-02-01T09:453.11013-7.10070
2026-02-01T09:463.01013-7.20070
2026-02-01T09:472.91013-7.0170070
2026-02-01T09:482.71013-7.2170070
2026-02-01T09:492.81013-6.6160070
2026-02-01T09:502.91013-6.530170
2026-02-01T09:512.81013-6.6110170
2026-02-01T09:522.81013-6.370170
2026-02-01T09:532.81013-6.150170
2026-02-01T09:542.71013-6.240170
2026-02-01T09:552.91013-6.230170
2026-02-01T09:563.31013-6.430170
2026-02-01T09:573.51013-6.530170
2026-02-01T09:583.51013-6.730170
2026-02-01T09:594.11013-6.530270
2026-02-01T10:004.31013-6.630270
2026-02-01T10:014.81013-6.720270
2026-02-01T10:024.51013-7.020170
2026-02-01T10:034.61013-7.220170
2026-02-01T10:044.11013-7.320170
2026-02-01T10:053.41013-7.720170
2026-02-01T10:063.01013-7.520170
2026-02-01T10:072.81013-7.130170
2026-02-01T10:082.91013-6.730170
2026-02-01T10:093.21013-6.230170
2026-02-01T10:102.91013-6.530170
2026-02-01T10:112.41013-6.730170
2026-02-01T10:122.71013-6.430170
2026-02-01T10:132.31013-7.030170
2026-02-01T10:142.31013-6.830170
2026-02-01T10:152.71013-6.720170
2026-02-01T10:162.51013-6.920170
2026-02-01T10:172.51013-7.110170
2026-02-01T10:182.31013-7.010170
2026-02-01T10:192.11013-7.010170
2026-02-01T10:202.31013-6.810170
2026-02-01T10:212.71013-6.710170
2026-02-01T10:222.51013-6.910170
2026-02-01T10:232.61013-6.810170
2026-02-01T10:242.81013-6.810170
2026-02-01T10:252.81013-6.820170
2026-02-01T10:262.61013-7.020170
2026-02-01T10:273.01013-6.920170
2026-02-01T10:282.41013-7.220170
2026-02-01T10:292.21013-7.420170
2026-02-01T10:302.41013-6.920170
2026-02-01T10:312.71013-6.720170
2026-02-01T10:322.71013-6.720170
2026-02-01T10:332.81013-6.820170
2026-02-01T10:342.91013-6.720170
2026-02-01T10:352.81013-6.820170
2026-02-01T10:362.81013-6.820170
2026-02-01T10:372.61013-7.020170
2026-02-01T10:382.81013-6.820170
2026-02-01T10:393.11013-6.610170
2026-02-01T10:403.31013-6.710170
2026-02-01T10:413.31013-6.720170
2026-02-01T10:423.31013-6.910170
2026-02-01T10:432.71013-7.210170
2026-02-01T10:443.21013-6.710170
2026-02-01T10:453.01013-6.720170
2026-02-01T10:462.91013-6.720170
2026-02-01T10:472.71013-6.920170
2026-02-01T10:482.41013-6.920170
2026-02-01T10:492.41013-6.720170
2026-02-01T10:502.21013-6.920170
2026-02-01T10:512.11013-6.720170
2026-02-01T10:522.31013-6.530170
2026-02-01T10:532.11013-6.530170
2026-02-01T10:542.31013-6.330170
2026-02-01T10:552.21013-6.430170
2026-02-01T10:561.91013-6.430170
2026-02-01T10:572.11013-6.240170
2026-02-01T10:582.31013-6.040170
2026-02-01T10:592.11013-6.240170
2026-02-01T11:002.31013-6.040170
2026-02-01T11:012.41013-6.240170
2026-02-01T11:022.11013-6.540170
2026-02-01T11:032.11013-6.540170
2026-02-01T11:042.21013-6.440170
2026-02-01T11:051.91013-6.440170
2026-02-01T11:062.01013-6.330170
2026-02-01T11:072.11013-6.230170
2026-02-01T11:082.31013-6.030170
2026-02-01T11:092.31013-6.330170
2026-02-01T11:102.01013-6.330170
2026-02-01T11:112.41013-5.930170
2026-02-01T11:122.11013-6.230170
2026-02-01T11:132.31013-6.030170
2026-02-01T11:142.31013-6.030170
2026-02-01T11:152.21013-6.130170
2026-02-01T11:162.31013-6.030170
2026-02-01T11:172.31013-6.030170
2026-02-01T11:182.11013-6.230170
2026-02-01T11:192.01013-6.130170
2026-02-01T11:202.01013-6.140170
2026-02-01T11:212.11013-6.030170
2026-02-01T11:222.31013-5.830170
2026-02-01T11:232.41013-5.730170
2026-02-01T11:242.41013-5.930170
2026-02-01T11:252.31013-6.030170
2026-02-01T11:262.31013-6.040170
2026-02-01T11:272.51013-5.840170
2026-02-01T11:282.41013-5.940170
2026-02-01T11:292.51013-5.850170
2026-02-01T11:302.61013-5.850070
2026-02-01T11:312.51013-5.870070
2026-02-01T11:322.61013-5.870070
2026-02-01T11:332.41013-5.980070
2026-02-01T11:342.31013-6.090070
2026-02-01T11:352.01013-6.390170
2026-02-01T11:361.91013-6.2100170
2026-02-01T11:372.11013-5.7100170
2026-02-01T11:382.31013-5.6110170
2026-02-01T11:392.11013-5.7110170
2026-02-01T11:402.21013-5.7120170
2026-02-01T11:411.91013-5.7120170
2026-02-01T11:422.01013-5.6120170
2026-02-01T11:431.71013-5.9120170
2026-02-01T11:441.61013-6.0130170
2026-02-01T11:451.61013-6.0130170
2026-02-01T11:461.71013-5.9140170
2026-02-01T11:471.71013-5.7140170
2026-02-01T11:481.51013-5.8140170
2026-02-01T11:491.01013-6.3140170
2026-02-01T11:500.91013-6.2130170
2026-02-01T11:510.91013-6.0130170
2026-02-01T11:521.21013-5.7130170
2026-02-01T11:531.31013-5.6130170
2026-02-01T11:541.41013-5.5120170
2026-02-01T11:551.51013-5.4120170
2026-02-01T11:561.71013-5.2120170
2026-02-01T11:571.71013-5.2110170
2026-02-01T11:581.91013-5.0110170
2026-02-01T11:591.51013-5.6100170
2026-02-01T12:001.11013-6.0100170
2026-02-01T12:010.91013-6.0100070
2026-02-01T12:021.01013-5.9100070
2026-02-01T12:031.21013-5.70070
2026-02-01T12:041.01013-5.70070
2026-02-01T12:051.11013-5.60070
2026-02-01T12:061.21013-5.70070
2026-02-01T12:071.11013-5.80070
2026-02-01T12:080.91013-6.00070
2026-02-01T12:091.11013-5.60070
2026-02-01T12:101.11013-5.60070
2026-02-01T12:110.91013-6.00070
2026-02-01T12:121.01013-5.70070
2026-02-01T12:130.91013-5.80070
2026-02-01T12:140.71013-5.90070
2026-02-01T12:150.71013-5.90070
2026-02-01T12:160.61013-5.80070
2026-02-01T12:170.51013-5.90070
2026-02-01T12:180.61013-5.60070
2026-02-01T12:190.91013-5.30070
2026-02-01T12:200.71013-5.50070
2026-02-01T12:211.01013-5.20070
2026-02-01T12:220.71013-5.50070
2026-02-01T12:230.71013-5.50070
2026-02-01T12:240.61013-5.60070
2026-02-01T12:250.61013-5.60070
2026-02-01T12:260.71013-5.5110070
2026-02-01T12:270.51013-5.7100070
2026-02-01T12:280.41013-5.890070
2026-02-01T12:290.11013-6.190070
2026-02-01T12:300.11013-6.1100070
2026-02-01T12:310.31013-5.5100070
2026-02-01T12:320.41013-5.4100070
2026-02-01T12:330.51013-5.3100070
2026-02-01T12:340.51013-5.5100070
2026-02-01T12:350.41013-5.6100070
2026-02-01T12:360.51013-5.5100070
2026-02-01T12:370.51013-5.5100070
2026-02-01T12:380.61013-5.4100070
2026-02-01T12:390.41013-5.6100070
2026-02-01T12:400.41013-5.6100070
2026-02-01T12:410.41013-5.4100070
2026-02-01T12:420.41013-5.4100070
2026-02-01T12:430.51013-5.5100070
2026-02-01T12:440.51013-5.3100070
2026-02-01T12:450.61013-5.2100070
2026-02-01T12:460.61013-5.2100070
2026-02-01T12:470.31013-5.5100170
2026-02-01T12:480.51013-5.3110170
2026-02-01T12:490.71013-5.1110170
2026-02-01T12:500.61013-5.2120170
2026-02-01T12:510.51014-5.5120170
2026-02-01T12:520.31014-5.7120170
2026-02-01T12:530.51014-5.5120170
2026-02-01T12:540.21014-5.8130170
2026-02-01T12:55-0.11014-6.1130170
2026-02-01T12:56-0.11014-5.9130170
2026-02-01T12:57-0.11014-5.9130170
2026-02-01T12:58-0.11014-5.7130170
2026-02-01T12:59-0.11014-5.7130170
2026-02-01T13:00-0.41014-6.0130170
2026-02-01T13:01-0.51014-6.1130170
2026-02-01T13:02-0.11014-5.5130170
2026-02-01T13:03-0.11014-5.5130170
2026-02-01T13:04-0.41014-6.0130070
2026-02-01T13:050.01014-5.4130070
2026-02-01T13:060.21014-5.2130070
2026-02-01T13:070.31014-5.3120070
2026-02-01T13:080.41014-5.2120170
2026-02-01T13:090.41014-5.4120170
2026-02-01T13:100.11014-5.7120170
2026-02-01T13:11-0.11014-5.9110170
2026-02-01T13:12-0.11014-5.7110170
2026-02-01T13:130.21014-5.2100170
2026-02-01T13:140.41014-5.0100170
2026-02-01T13:150.41014-5.090170
2026-02-01T13:160.21014-5.490170
2026-02-01T13:170.01014-5.480170
2026-02-01T13:180.21014-5.280170
2026-02-01T13:190.21014-5.280170
2026-02-01T13:200.11014-5.580170
2026-02-01T13:210.21014-5.480170
2026-02-01T13:220.11014-5.590170
2026-02-01T13:23-0.11014-5.590170
2026-02-01T13:24-0.21014-5.4100170
2026-02-01T13:25-0.11014-5.3100170
2026-02-01T13:260.01014-5.2110070
2026-02-01T13:27-0.21014-5.2110070
2026-02-01T13:28-0.31014-5.3110070
2026-02-01T13:29-0.21014-5.2110070
2026-02-01T13:30-0.21013-5.2110070
2026-02-01T13:31-0.21013-5.00070
2026-02-01T13:32-0.11013-4.90070
2026-02-01T13:330.11013-4.70070
2026-02-01T13:340.01013-5.00070
2026-02-01T13:350.11013-4.90070
2026-02-01T13:36-0.11013-5.190070
2026-02-01T13:370.11013-4.790070
2026-02-01T13:380.21013-4.690070
2026-02-01T13:390.01013-5.080070
2026-02-01T13:40-0.11013-4.90070
2026-02-01T13:410.11013-4.50070
2026-02-01T13:420.21013-4.690070
2026-02-01T13:43-0.11013-5.190070
2026-02-01T13:44-0.51013-5.590070
2026-02-01T13:45-0.31013-5.390070
2026-02-01T13:460.01013-4.890070
2026-02-01T13:47-0.31013-5.390070
2026-02-01T13:480.11013-4.990070
2026-02-01T13:49-0.21013-5.490070
2026-02-01T13:50-0.41013-5.690070
2026-02-01T13:51-0.41014-5.490070
2026-02-01T13:52-0.31014-5.380070
2026-02-01T13:53-0.31014-5.170070
2026-02-01T13:54-0.31014-5.170070
2026-02-01T13:55-0.61014-5.660070
2026-02-01T13:56-0.51014-5.350070
2026-02-01T13:57-0.31014-5.140070
2026-02-01T13:58-0.41014-5.230170
2026-02-01T13:59-0.61014-5.420170
2026-02-01T14:00-1.01014-5.810170
2026-02-01T14:01-1.31014-5.9360170
2026-02-01T14:02-1.71014-6.1340170
2026-02-01T14:03-1.91014-6.3320170
2026-02-01T14:04-2.01014-6.2300170
2026-02-01T14:05-1.91014-5.9290170
2026-02-01T14:06-1.91014-5.7280170
2026-02-01T14:07-1.81014-5.8270170
2026-02-01T14:08-1.61014-5.6260170
2026-02-01T14:09-1.61014-5.6250170
2026-02-01T14:10-1.41014-5.6250170
2026-02-01T14:11-1.21014-5.4250170
2026-02-01T14:12-1.31014-5.7250170
2026-02-01T14:13-1.01014-5.4250170
2026-02-01T14:14-1.21014-5.6250170
2026-02-01T14:15-1.21014-5.6260170
2026-02-01T14:16-1.01014-5.4270170
2026-02-01T14:17-0.81014-5.2270170
2026-02-01T14:18-1.01014-5.6280170
2026-02-01T14:19-1.11014-5.7300170
2026-02-01T14:20-1.01014-5.6310170
2026-02-01T14:21-1.01014-5.6310170
2026-02-01T14:22-0.91014-5.5320170
2026-02-01T14:23-1.01014-5.6330170
2026-02-01T14:24-1.21014-5.8330170
2026-02-01T14:25-1.01014-5.4320170
2026-02-01T14:26-0.91014-5.3320170
2026-02-01T14:27-1.11014-5.5320070
2026-02-01T14:28-1.11014-5.5320070
2026-02-01T14:29-1.11014-5.3330070
2026-02-01T14:30-1.01014-5.2330070
2026-02-01T14:31-0.81014-5.0330070
2026-02-01T14:32-1.51014-5.9330070
2026-02-01T14:33-1.31014-5.5330070
2026-02-01T14:34-1.31014-5.3330070
2026-02-01T14:35-1.11014-5.1330070
2026-02-01T14:36-1.11014-5.3330070
2026-02-01T14:37-1.31014-5.5320070
2026-02-01T14:38-1.21014-5.40070
2026-02-01T14:39-1.01014-5.20070
2026-02-01T14:40-0.81014-5.00070
2026-02-01T14:41-0.91014-5.10070
2026-02-01T14:42-1.01014-5.40070
2026-02-01T14:43-1.11014-5.50070
2026-02-01T14:44-1.11014-5.30070
2026-02-01T14:45-1.11014-5.50070
2026-02-01T14:46-1.01014-5.4300070
2026-02-01T14:47-1.11014-5.5290070
2026-02-01T14:48-1.81014-6.2290070
2026-02-01T14:49-2.21014-6.5290170
2026-02-01T14:50-2.11014-6.1280170
2026-02-01T14:51-2.01014-5.8270170
2026-02-01T14:52-2.11014-5.9270170
2026-02-01T14:53-2.01014-5.6260170
2026-02-01T14:54-1.81014-5.5260170
2026-02-01T14:55-1.61014-5.3260170
2026-02-01T14:56-1.51014-5.3260170
2026-02-01T14:57-1.51014-5.3250170
2026-02-01T14:58-1.71014-5.7250170
2026-02-01T14:59-1.61014-5.4250170
2026-02-01T15:00-1.51014-5.3250070
2026-02-01T15:01-1.51014-5.5250070
2026-02-01T15:02-1.61014-5.6260070
2026-02-01T15:03-1.51014-5.5260070
2026-02-01T15:04-1.61014-5.8270170
2026-02-01T15:05-1.61014-5.6280170
2026-02-01T15:06-1.71014-5.7280170
2026-02-01T15:07-1.81014-5.8290170
2026-02-01T15:08-1.91014-5.7290170
2026-02-01T15:09-1.61014-5.4300170
2026-02-01T15:10-1.91014-5.7300170
2026-02-01T15:11-1.81014-5.6310170
2026-02-01T15:12-1.71014-5.5310170
2026-02-01T15:13-1.61014-5.4310170
2026-02-01T15:14-1.91014-5.7310170
2026-02-01T15:15-2.01014-5.8310170
2026-02-01T15:16-2.11014-5.9300170
2026-02-01T15:17-1.81014-5.5310170
2026-02-01T15:18-2.01014-5.6310170
2026-02-01T15:19-2.21014-5.8310170
2026-02-01T15:20-2.21014-5.8310170
2026-02-01T15:21-2.01014-5.6310170
2026-02-01T15:22-1.91014-5.5310170
2026-02-01T15:23-1.81014-5.5310170
2026-02-01T15:24-1.91014-5.7310170
2026-02-01T15:25-2.01014-5.8310170
2026-02-01T15:26-1.81014-5.6310170
2026-02-01T15:27-1.71014-5.5310170
2026-02-01T15:28-1.51014-5.3310170
2026-02-01T15:29-1.81014-5.8310170
2026-02-01T15:30-2.21014-6.2310170
2026-02-01T15:31-2.21014-6.0310170
2026-02-01T15:32-2.11014-5.9300170
2026-02-01T15:33-1.91014-5.7300170
2026-02-01T15:34-1.91014-5.7290170
2026-02-01T15:35-2.11014-5.9280170
2026-02-01T15:36-2.11014-5.9280070
2026-02-01T15:37-2.01014-5.8280170
2026-02-01T15:38-2.01014-5.8280170
2026-02-01T15:39-2.01014-6.0280170
2026-02-01T15:40-2.01014-6.0280170
2026-02-01T15:41-2.31014-6.3280170
2026-02-01T15:42-2.31014-6.1280170
2026-02-01T15:43-2.31014-5.9290170
2026-02-01T15:44-2.11014-5.7290170
2026-02-01T15:45-2.01014-5.6300170
2026-02-01T15:46-2.01014-5.8300170
2026-02-01T15:47-2.01014-5.8300170
2026-02-01T15:48-2.21014-6.2300170
2026-02-01T15:49-2.11014-5.9290170
2026-02-01T15:50-1.91014-5.7290170
2026-02-01T15:51-2.11014-6.1280170
2026-02-01T15:52-2.21014-6.2280170
2026-02-01T15:53-1.81014-5.8280170
2026-02-01T15:54-1.91014-6.1280170
2026-02-01T15:55-2.01014-6.2280170
2026-02-01T15:56-2.11014-6.5280170
2026-02-01T15:57-2.01014-6.4280170
2026-02-01T15:58-2.31014-6.6280170
2026-02-01T15:59-2.01014-6.2290170
2026-02-01T16:00-2.21014-6.4290170
2026-02-01T16:01-2.01014-6.0300170
2026-02-01T16:02-1.61014-5.8300170
2026-02-01T16:03-1.51014-5.9300170
2026-02-01T16:04-1.61014-6.0300170
2026-02-01T16:05-1.91014-6.3310170
2026-02-01T16:06-1.91014-6.3310170
2026-02-01T16:07-1.71014-6.1320170
2026-02-01T16:08-1.61014-6.0320170
2026-02-01T16:09-1.51014-6.1310170
2026-02-01T16:10-1.51014-6.1310170
2026-02-01T16:11-1.91014-6.6310170
2026-02-01T16:12-2.11014-6.6310170
2026-02-01T16:13-2.31014-6.6310170
2026-02-01T16:14-1.91014-6.1300170
2026-02-01T16:15-2.31014-6.6300170
2026-02-01T16:16-2.11014-6.3290170
2026-02-01T16:17-2.01014-6.2280170
2026-02-01T16:18-2.11014-6.3270170
2026-02-01T16:19-2.01014-6.2270170
2026-02-01T16:20-1.71014-5.9260170
2026-02-01T16:21-1.81014-6.2260170
2026-02-01T16:22-1.71014-6.1260170
2026-02-01T16:23-2.01014-6.5250170
2026-02-01T16:24-1.91014-6.4250170
2026-02-01T16:25-1.91014-6.4250170
2026-02-01T16:26-2.01014-6.5240170
2026-02-01T16:27-2.01014-6.5240170
2026-02-01T16:28-2.01014-6.4240170
2026-02-01T16:29-2.21014-6.5240170
2026-02-01T16:30-2.31014-6.6250170
2026-02-01T16:31-2.21014-6.2250170
2026-02-01T16:32-2.41014-6.4250270
2026-02-01T16:33-2.41014-6.2250270
2026-02-01T16:34-2.21014-6.2260270
2026-02-01T16:35-1.91014-5.9260270
2026-02-01T16:36-2.11014-6.3260270
2026-02-01T16:37-2.11014-6.3270170
2026-02-01T16:38-2.31014-6.6270170
2026-02-01T16:39-2.31014-6.5270170
2026-02-01T16:40-2.31014-6.5270170
2026-02-01T16:41-2.41014-6.6280170
2026-02-01T16:42-2.51014-6.7280170
2026-02-01T16:43-2.51014-6.5280170
2026-02-01T16:44-2.31014-6.3280170
2026-02-01T16:45-2.41014-6.4280170
2026-02-01T16:46-2.41014-6.4280170
2026-02-01T16:47-2.31014-6.3280170
2026-02-01T16:48-2.41014-6.4280170
2026-02-01T16:49-2.31014-6.3280170
2026-02-01T16:50-2.31014-6.3280170
2026-02-01T16:51-2.31014-6.3280170
2026-02-01T16:52-2.61014-6.8280170
2026-02-01T16:53-2.61014-6.6280170
2026-02-01T16:54-2.81014-6.8290170
2026-02-01T16:55-2.51014-6.3290170
2026-02-01T16:56-2.51014-6.3290170
2026-02-01T16:57-2.61014-6.4290170
2026-02-01T16:58-2.61014-6.4290170
2026-02-01T16:59-2.51014-6.3290170
2026-02-01T17:00-2.51014-6.3300170
2026-02-01T17:01-2.61014-6.4300170
2026-02-01T17:02-2.51014-6.3300170
2026-02-01T17:03-2.71014-6.5290170
2026-02-01T17:04-2.51014-6.3290170
2026-02-01T17:05-2.71014-6.5290170
2026-02-01T17:06-3.21014-7.2280170
2026-02-01T17:07-3.51014-7.5280170
2026-02-01T17:08-3.61014-7.4270170
2026-02-01T17:09-3.41014-6.8270170
2026-02-01T17:10-3.31014-6.6260170
2026-02-01T17:11-3.11014-6.2260170
2026-02-01T17:12-3.21014-6.3260170
2026-02-01T17:13-3.11014-6.4250170
2026-02-01T17:14-3.21014-6.5260170
2026-02-01T17:15-2.91014-6.2260170
2026-02-01T17:16-2.81014-6.1260170
2026-02-01T17:17-3.01014-6.4260170
2026-02-01T17:18-3.01014-6.4260170
2026-02-01T17:19-3.21014-6.5260170
2026-02-01T17:20-3.11014-6.4260170
2026-02-01T17:21-3.01014-6.3270170
2026-02-01T17:22-3.11014-6.5270170
2026-02-01T17:23-3.11014-6.5270170
2026-02-01T17:24-3.11014-6.4280170
2026-02-01T17:25-3.01014-6.3280170
2026-02-01T17:26-2.91014-6.2280170
2026-02-01T17:27-2.91014-6.4280170
2026-02-01T17:28-2.81014-6.3290170
2026-02-01T17:29-2.91014-6.4290170
2026-02-01T17:30-2.81014-6.3290170
2026-02-01T17:31-2.91014-6.4290170
2026-02-01T17:32-3.01014-6.6280170
2026-02-01T17:33-3.21014-6.6280170
2026-02-01T17:34-3.11014-6.5280170
2026-02-01T17:35-3.01014-6.4280170
2026-02-01T17:36-3.01014-6.4280170
2026-02-01T17:37-3.01014-6.4280170
2026-02-01T17:38-2.81014-6.3270170
2026-02-01T17:39-3.01014-6.4270170
2026-02-01T17:40-3.01014-6.4270170
2026-02-01T17:41-3.21014-6.6270170
2026-02-01T17:42-3.21014-6.6270170
2026-02-01T17:43-3.21014-6.5270170
2026-02-01T17:44-3.11014-6.4270170
2026-02-01T17:45-3.51014-6.8270170
2026-02-01T17:46-3.51014-6.8270170
2026-02-01T17:47-3.41014-6.5270170
2026-02-01T17:48-3.31014-6.6270170
2026-02-01T17:49-3.01014-6.1270170
2026-02-01T17:50-3.11014-6.4270170
2026-02-01T17:51-3.01014-6.3270170
2026-02-01T17:52-2.81014-6.1270170
2026-02-01T17:53-2.91014-6.4270170
2026-02-01T17:54-3.01014-6.4270170
2026-02-01T17:55-2.91014-6.4260170
2026-02-01T17:56-2.81014-6.3260170
2026-02-01T17:57-2.91014-6.4260170
2026-02-01T17:58-3.01014-6.6260170
2026-02-01T17:59-3.31014-6.9260170
2026-02-01T18:00-3.01014-6.4260170
2026-02-01T18:01-3.11014-6.5260170
2026-02-01T18:02-3.31014-6.7250170
2026-02-01T18:03-3.11014-6.5250170
2026-02-01T18:04-2.81014-6.1250170
2026-02-01T18:05-2.91014-6.4250170
2026-02-01T18:06-2.91014-6.4250170
2026-02-01T18:07-3.11014-6.5250170
2026-02-01T18:08-3.21014-6.6250170
2026-02-01T18:09-3.11014-6.5250170
2026-02-01T18:10-3.01014-6.4250170
2026-02-01T18:11-3.21014-6.6250170
2026-02-01T18:12-3.11014-6.5250170
2026-02-01T18:13-3.01014-6.3250170
2026-02-01T18:14-3.01014-6.3250170
2026-02-01T18:15-3.01014-6.4260170
2026-02-01T18:16-2.91014-6.4260170
2026-02-01T18:17-2.91014-6.4260170
2026-02-01T18:18-2.91014-6.4270170
2026-02-01T18:19-2.81014-6.3270170
2026-02-01T18:20-2.81014-6.3280170
2026-02-01T18:21-2.81014-6.4280170
2026-02-01T18:22-2.81014-6.4280170
2026-02-01T18:23-3.01014-6.6290170
2026-02-01T18:24-3.21014-6.8290170
2026-02-01T18:25-3.21014-6.6290170
2026-02-01T18:26-3.31014-6.6290170
2026-02-01T18:27-3.21014-6.5280170
2026-02-01T18:28-3.41014-6.7280170
2026-02-01T18:29-3.51014-6.8280170
2026-02-01T18:30-3.61014-6.9270170
2026-02-01T18:31-3.51014-6.6270170
2026-02-01T18:32-3.51014-6.6270170
2026-02-01T18:33-3.51014-6.6260170
2026-02-01T18:34-3.31014-6.4260170
2026-02-01T18:35-3.31014-6.4260170
2026-02-01T18:36-3.31014-6.4260170
2026-02-01T18:37-3.71014-7.0260170
2026-02-01T18:38-3.81014-6.9260170
2026-02-01T18:39-3.51014-6.4260170
2026-02-01T18:40-3.31014-6.2250170
2026-02-01T18:41-3.21014-6.3250170
2026-02-01T18:42-3.41014-6.5250170
2026-02-01T18:43-3.51014-6.6250170
2026-02-01T18:44-3.51014-6.6250170
2026-02-01T18:45-3.71014-6.8250170
2026-02-01T18:46-3.51014-6.4250170
2026-02-01T18:47-3.51014-6.4250170
2026-02-01T18:48-3.41014-6.3250170
2026-02-01T18:49-3.31014-6.2250170
2026-02-01T18:50-3.41014-6.5250170
2026-02-01T18:51-3.21014-6.3250170
2026-02-01T18:52-3.21014-6.3250170
2026-02-01T18:53-3.41014-6.5250070
2026-02-01T18:54-3.51014-6.6250070
2026-02-01T18:55-3.51014-6.40070
2026-02-01T18:56-3.51014-6.40070
2026-02-01T18:57-3.61014-6.50070
2026-02-01T18:58-3.61014-6.5260070
2026-02-01T18:59-3.51014-6.4270070
2026-02-01T19:00-3.51014-6.4270070
2026-02-01T19:01-3.61014-6.5270070
2026-02-01T19:02-3.61014-6.5280170
2026-02-01T19:03-3.41014-6.3280170
2026-02-01T19:04-3.41014-6.3280170
2026-02-01T19:05-3.61014-6.5280170
2026-02-01T19:06-3.61014-6.5280170
2026-02-01T19:07-3.61014-6.5280170
2026-02-01T19:08-3.71014-6.6280170
2026-02-01T19:09-3.81014-6.7280170
2026-02-01T19:10-3.81014-6.7280170
2026-02-01T19:11-3.71014-6.5280170
2026-02-01T19:12-3.51014-6.3280170
2026-02-01T19:13-4.11013-7.0280170
2026-02-01T19:14-4.21013-7.1280170
2026-02-01T19:15-3.91013-6.7280170
2026-02-01T19:16-3.91013-6.7270170
2026-02-01T19:17-4.01013-6.8270170
2026-02-01T19:18-3.81013-6.4270170
2026-02-01T19:19-3.61013-6.2270170
2026-02-01T19:20-3.51013-6.1270170
2026-02-01T19:21-4.11013-7.0270170
2026-02-01T19:22-4.31013-7.2270170
2026-02-01T19:23-3.91013-6.7270170
2026-02-01T19:24-3.71014-6.3270170
2026-02-01T19:25-3.71014-6.3270170
2026-02-01T19:26-3.71014-6.3270170
2026-02-01T19:27-4.01013-6.8260170
2026-02-01T19:28-4.01013-6.6270170
2026-02-01T19:29-3.91013-6.5270170
2026-02-01T19:30-3.91013-6.5270170
2026-02-01T19:31-3.81013-6.4270170
2026-02-01T19:32-3.61013-6.2280170
2026-02-01T19:33-3.81013-6.4280170
2026-02-01T19:34-3.91014-6.5280170
2026-02-01T19:35-4.01014-6.6280170
2026-02-01T19:36-4.11014-6.7280170
2026-02-01T19:37-4.11014-6.7280170
2026-02-01T19:38-4.01014-6.6270170
2026-02-01T19:39-3.91014-6.5270170
2026-02-01T19:40-3.91014-6.5270170
2026-02-01T19:41-4.11014-6.7270170
2026-02-01T19:42-4.01014-6.4270170
2026-02-01T19:43-4.11014-6.5270170
2026-02-01T19:44-4.11014-6.5270170
2026-02-01T19:45-4.21014-6.6260170
2026-02-01T19:46-4.51013-6.9260170
2026-02-01T19:47-4.71013-7.1260170
2026-02-01T19:48-4.51013-6.8260170
2026-02-01T19:49-4.31013-6.6260170
2026-02-01T19:50-4.21013-6.3260170
2026-02-01T19:51-4.21013-6.5260170
2026-02-01T19:52-4.21013-6.5260170
2026-02-01T19:53-4.11013-6.4260170
2026-02-01T19:54-4.01013-6.3260170
2026-02-01T19:55-4.11013-6.4260170
2026-02-01T19:56-4.11013-6.4260170
2026-02-01T19:57-3.91013-6.3260170
2026-02-01T19:58-3.81013-6.2250170
2026-02-01T19:59-4.01013-6.4250170
2026-02-01T20:00-4.11014-6.7250170
2026-02-01T20:01-4.21014-6.8250170
2026-02-01T20:02-4.11014-6.5240170
2026-02-01T20:03-3.91014-6.3240170
2026-02-01T20:04-4.21014-6.8240170
2026-02-01T20:05-4.21014-6.8230170
2026-02-01T20:06-4.01014-6.4230170
2026-02-01T20:07-3.91014-6.3230170
2026-02-01T20:08-3.91014-6.5230170
2026-02-01T20:09-4.11014-6.7220170
2026-02-01T20:10-4.31014-6.9220170
2026-02-01T20:11-4.51014-7.1220170
2026-02-01T20:12-4.11014-6.5230170
2026-02-01T20:13-4.01014-6.3230170
2026-02-01T20:14-3.91014-6.2240170
2026-02-01T20:15-3.81014-6.1240170
2026-02-01T20:16-3.71014-6.1250170
2026-02-01T20:17-3.71014-6.1260170
2026-02-01T20:18-3.91014-6.5260170
2026-02-01T20:19-3.81014-6.4270170
2026-02-01T20:20-3.81014-6.4280170
2026-02-01T20:21-3.81014-6.4290170
2026-02-01T20:22-4.01014-6.6290170
2026-02-01T20:23-3.91014-6.5290170
2026-02-01T20:24-3.81014-6.2300170
2026-02-01T20:25-3.81014-6.4300170
2026-02-01T20:26-3.81014-6.4300170
2026-02-01T20:27-3.81014-6.4300170
2026-02-01T20:28-3.91014-6.5300170
2026-02-01T20:29-3.91014-6.5300170
2026-02-01T20:30-3.81014-6.4300170
2026-02-01T20:31-4.01014-6.6300170
2026-02-01T20:32-4.21014-6.8300170
2026-02-01T20:33-4.21014-6.8300170
2026-02-01T20:34-4.21014-6.6290170
2026-02-01T20:35-4.11014-6.5290170
2026-02-01T20:36-3.91014-6.3280170
2026-02-01T20:37-3.71014-6.1280170
2026-02-01T20:38-3.71014-6.3270170
2026-02-01T20:39-3.71014-6.3260170
2026-02-01T20:40-3.41014-6.0260170
2026-02-01T20:41-3.51014-6.1250170
2026-02-01T20:42-3.51014-6.3240170
2026-02-01T20:43-3.71014-6.5240170
2026-02-01T20:44-3.81014-6.4230170
2026-02-01T20:45-3.71014-6.3230170
2026-02-01T20:46-3.61014-6.2230170
2026-02-01T20:47-3.71014-6.3230170
2026-02-01T20:48-3.71014-6.3240170
2026-02-01T20:49-3.61014-6.2240170
2026-02-01T20:50-3.51014-6.1250170
2026-02-01T20:51-3.21014-5.8250170
2026-02-01T20:52-3.01014-5.8260170
2026-02-01T20:53-3.31014-6.1260170
2026-02-01T20:54-3.21014-6.0260170
2026-02-01T20:55-3.11014-6.0270170
2026-02-01T20:56-3.21014-6.1270170
2026-02-01T20:57-3.31014-6.2280170
2026-02-01T20:58-3.31014-6.2280170
2026-02-01T20:59-3.31014-6.1290170
2026-02-01T21:00-3.31014-6.1290170
2026-02-01T21:01-3.31014-6.1300170
2026-02-01T21:02-3.31014-6.1300170
2026-02-01T21:03-3.31014-6.1300170
2026-02-01T21:04-3.21014-5.8310170
2026-02-01T21:05-3.11014-5.7310170
2026-02-01T21:06-2.81014-5.3300170
2026-02-01T21:07-2.81014-5.4300170
2026-02-01T21:08-2.61014-5.4300170
2026-02-01T21:09-2.41014-5.2290170
2026-02-01T21:10-2.41014-5.4290170
2026-02-01T21:11-2.41014-5.4280170
2026-02-01T21:12-2.21014-5.2270170
2026-02-01T21:13-2.21014-5.3270170
2026-02-01T21:14-2.21014-5.3260270
2026-02-01T21:15-2.21014-5.3260270
2026-02-01T21:16-2.21014-5.3260270
2026-02-01T21:17-2.21014-5.5250270
2026-02-01T21:18-2.21014-5.5250270
2026-02-01T21:19-2.11014-5.4250170
2026-02-01T21:20-2.31014-5.4250170
2026-02-01T21:21-2.41014-5.4250170
2026-02-01T21:22-2.31014-5.4250170
2026-02-01T21:23-2.31014-5.4260170
2026-02-01T21:24-2.31014-5.4260170
2026-02-01T21:25-2.51014-5.5260170
2026-02-01T21:26-2.51014-5.5270170
2026-02-01T21:27-2.31014-5.3260170
2026-02-01T21:28-2.31014-5.3260170
2026-02-01T21:29-2.21014-5.2260170
2026-02-01T21:30-2.21014-5.2260170
2026-02-01T21:31-2.21014-5.3260170
2026-02-01T21:32-2.21014-5.3260170
2026-02-01T21:33-2.31014-5.3260170
2026-02-01T21:34-2.41014-5.4260170
2026-02-01T21:35-2.41014-5.4260170
2026-02-01T21:36-2.41014-5.2260270
2026-02-01T21:37-2.31014-5.1260270
2026-02-01T21:38-2.21014-5.0260270
2026-02-01T21:39-2.11014-5.1260270
2026-02-01T21:40-2.31014-5.3260270
2026-02-01T21:41-2.31014-5.3270170
2026-02-01T21:42-2.41014-5.2270170
2026-02-01T21:43-2.51014-5.1280170
2026-02-01T21:44-2.41014-5.0280170
2026-02-01T21:45-2.11014-4.7280170
2026-02-01T21:46-1.91014-4.7280170
2026-02-01T21:47-1.81014-4.8280170
2026-02-01T21:48-1.81014-4.8270170
2026-02-01T21:49-1.91014-5.0270170
2026-02-01T21:50-1.81014-4.9270170
2026-02-01T21:51-1.81014-4.9260170
2026-02-01T21:52-1.91014-5.0250170
2026-02-01T21:53-1.81014-4.9250170
2026-02-01T21:54-1.91014-5.0250170
2026-02-01T21:55-1.91014-5.0250170
2026-02-01T21:56-1.91014-5.0250170
2026-02-01T21:57-2.01014-5.0250170
2026-02-01T21:58-2.01014-5.0250270
2026-02-01T21:59-2.01014-5.0250270
2026-02-01T22:00-2.11014-5.1250270
2026-02-01T22:01-2.01014-5.0260270
2026-02-01T22:02-2.01014-4.8260270
2026-02-01T22:03-2.01014-4.8260270
2026-02-01T22:04-2.01014-5.0260270
2026-02-01T22:05-2.01014-5.0260270
2026-02-01T22:06-2.01014-5.0260270
2026-02-01T22:07-2.11014-4.9260270
2026-02-01T22:08-1.91014-4.7260270
2026-02-01T22:09-1.81014-4.8260270
2026-02-01T22:10-1.91014-4.9270270
2026-02-01T22:11-2.01014-5.0270270
2026-02-01T22:12-2.11014-5.1270270
2026-02-01T22:13-2.11014-4.9270270
2026-02-01T22:14-2.11014-4.9270270
2026-02-01T22:15-2.01014-4.8270270
2026-02-01T22:16-2.11014-4.9260270
2026-02-01T22:17-2.01014-4.8260270
2026-02-01T22:18-2.01014-5.0260270
2026-02-01T22:19-2.11014-5.1260270
2026-02-01T22:20-2.11014-4.9260270
2026-02-01T22:21-2.21014-5.0260270
2026-02-01T22:22-2.21014-5.0250270
2026-02-01T22:23-2.21014-5.0250270
2026-02-01T22:24-2.11014-4.9250270
2026-02-01T22:25-2.11014-4.9250270
2026-02-01T22:26-2.11014-4.9250270
2026-02-01T22:27-2.11014-4.9250270
2026-02-01T22:28-2.21014-5.0260270
2026-02-01T22:29-2.21014-5.0260270
2026-02-01T22:30-2.41014-5.2260270
2026-02-01T22:31-2.21014-5.0260270
2026-02-01T22:32-2.11014-4.9260270
2026-02-01T22:33-2.01014-4.8260270
2026-02-01T22:34-2.01014-4.8260270
2026-02-01T22:35-1.81014-4.6270270
2026-02-01T22:36-1.71014-4.5270270
2026-02-01T22:37-1.71014-4.7270270
2026-02-01T22:38-1.71014-4.7270270
2026-02-01T22:39-1.51014-4.6270270
2026-02-01T22:40-1.51014-4.6270270
2026-02-01T22:41-1.41014-4.6270270
2026-02-01T22:42-1.41014-4.6270270
2026-02-01T22:43-1.41014-4.6270270
2026-02-01T22:44-1.31014-4.5270270
2026-02-01T22:45-1.31014-4.6270270
2026-02-01T22:46-1.31014-4.6270270
2026-02-01T22:47-1.31014-4.6270270
2026-02-01T22:48-1.31014-4.5270270
2026-02-01T22:49-1.21014-4.5270270
2026-02-01T22:50-1.11014-4.4270270
2026-02-01T22:51-1.11014-4.4270270
2026-02-01T22:52-1.01014-4.5270270
2026-02-01T22:53-1.01014-4.3280270
2026-02-01T22:54-1.01014-4.5280270
2026-02-01T22:55-0.91014-4.4280170
2026-02-01T22:56-0.91014-4.4280170
2026-02-01T22:57-0.81014-4.3270170
2026-02-01T22:58-0.81014-4.5270170
2026-02-01T22:59-0.81014-4.7270170
2026-02-01T23:00-0.71014-4.6260170
2026-02-01T23:01-0.71014-4.6260170
2026-02-01T23:02-0.61014-4.5260170
2026-02-01T23:03-0.71014-4.7250170
2026-02-01T23:04-0.71014-4.7250170
2026-02-01T23:05-0.61014-4.6250170
2026-02-01T23:06-0.51014-4.5240170
2026-02-01T23:07-0.51014-4.4240170
2026-02-01T23:08-0.51014-4.5240170
2026-02-01T23:09-0.51014-4.5240170
2026-02-01T23:10-0.41014-4.4240170
2026-02-01T23:11-0.31014-4.3240170
2026-02-01T23:12-0.41014-4.4240170
2026-02-01T23:13-0.31014-4.3240170
2026-02-01T23:14-0.21014-4.3240170
2026-02-01T23:150.11014-3.8240170
2026-02-01T23:160.11014-4.0240170
2026-02-01T23:170.11014-4.1240170
2026-02-01T23:180.11014-4.3240170
2026-02-01T23:190.11014-4.3240170
2026-02-01T23:200.11014-4.3240170
2026-02-01T23:210.21014-4.2240170
2026-02-01T23:220.51014-3.9240170
2026-02-01T23:230.71014-3.6250170
2026-02-01T23:241.01014-3.3250170
2026-02-01T23:251.01014-3.5250170
2026-02-01T23:261.11014-3.6260170
2026-02-01T23:271.71014-2.8260170
2026-02-01T23:281.91014-3.0260170
2026-02-01T23:292.11014-3.0260170
2026-02-01T23:302.01014-3.3260170
2026-02-01T23:311.71014-4.2260170
2026-02-01T23:321.91014-3.8260170
2026-02-01T23:331.91014-3.8260170
2026-02-01T23:341.81014-4.3260170
2026-02-01T23:351.81014-4.3260170
2026-02-01T23:361.71014-4.4250170
2026-02-01T23:371.61014-4.5250170
2026-02-01T23:381.71014-4.4260170
2026-02-01T23:391.81014-4.3260270
2026-02-01T23:402.01014-4.1260170
2026-02-01T23:412.01014-4.3270170
2026-02-01T23:422.21014-4.1270170
2026-02-01T23:432.41014-4.1270170
2026-02-01T23:442.51014-4.0280170
2026-02-01T23:452.41014-4.6280170
2026-02-01T23:462.91014-3.9280170
2026-02-01T23:472.91014-4.1280170
2026-02-01T23:482.81014-4.2280170
2026-02-01T23:492.81014-4.4280170
2026-02-01T23:503.11014-3.9280270
2026-02-01T23:512.91014-4.3270270
2026-02-01T23:522.91014-4.5270270
2026-02-01T23:533.01014-4.4270270
2026-02-01T23:542.91014-4.8270270
2026-02-01T23:553.11014-4.6270270
2026-02-01T23:563.51014-4.0270270
2026-02-01T23:573.61014-4.1270270
2026-02-01T23:583.51014-4.7270270
2026-02-01T23:593.31014-5.1270270
2026-02-02T00:003.61014-4.6270270
2026-02-02T00:013.61014-4.6270270
2026-02-02T00:023.51014-4.7270270
2026-02-02T00:033.61014-4.6260270
2026-02-02T00:043.61014-4.8260270
2026-02-02T00:053.61014-5.1260270
2026-02-02T00:063.71014-5.0260270
2026-02-02T00:073.81014-4.9270270
2026-02-02T00:083.81014-4.9270270
2026-02-02T00:094.11014-4.6270270
2026-02-02T00:104.11014-4.9270370
2026-02-02T00:114.21014-4.8260370
2026-02-02T00:124.11014-5.1260370
2026-02-02T00:134.61014-4.4260370
2026-02-02T00:144.41014-4.8260370
2026-02-02T00:154.41014-5.1260270
2026-02-02T00:164.31014-5.2260270
2026-02-02T00:174.41014-5.1260270
2026-02-02T00:184.51014-5.0260270
2026-02-02T00:194.21014-5.5260270
2026-02-02T00:204.31014-5.2270270
2026-02-02T00:214.51014-5.0270270
2026-02-02T00:224.81014-4.7270270
2026-02-02T00:234.81014-4.7280370
2026-02-02T00:244.91014-4.6280370
2026-02-02T00:255.51014-4.1280370
2026-02-02T00:265.41014-4.4280370
2026-02-02T00:275.01014-5.1280370
2026-02-02T00:284.91014-5.2280370
2026-02-02T00:295.01014-4.8280370
2026-02-02T00:305.31014-4.5280370
2026-02-02T00:315.31014-4.5270370
2026-02-02T00:325.81014-4.1270370
2026-02-02T00:335.51014-4.9270370
2026-02-02T00:345.61014-4.8270370
2026-02-02T00:355.81014-4.6270370
2026-02-02T00:365.61014-5.1270370
2026-02-02T00:375.71014-5.0270370
2026-02-02T00:385.71014-5.0270370
2026-02-02T00:395.51014-5.2280370
2026-02-02T00:405.31014-5.4270370
2026-02-02T00:415.21014-5.2270370
2026-02-02T00:425.41014-5.0270370
2026-02-02T00:435.51014-4.9270370
2026-02-02T00:445.51014-4.9270370
2026-02-02T00:455.61014-4.8270370
2026-02-02T00:465.61014-4.8270370
2026-02-02T00:475.61014-4.8270370
2026-02-02T00:485.71014-5.0270370
2026-02-02T00:495.81014-4.9260370
2026-02-02T00:505.81014-4.9260370
2026-02-02T00:516.01014-4.7260370
2026-02-02T00:526.21014-4.5260370
2026-02-02T00:536.71014-4.1250370
2026-02-02T00:546.51014-4.6250370
2026-02-02T00:556.31014-4.7250370
2026-02-02T00:566.11014-5.2250370
2026-02-02T00:576.61014-4.5250370
2026-02-02T00:586.41014-4.9250370
2026-02-02T00:596.11014-5.5240370
2026-02-02T01:006.31014-5.3250370
2026-02-02T01:016.11014-5.5250370
2026-02-02T01:026.31014-5.3250370
2026-02-02T01:036.81014-4.6250370
2026-02-02T01:047.31014-4.4250370
2026-02-02T01:056.51014-5.8250370
2026-02-02T01:066.41014-5.6250370
2026-02-02T01:076.21014-5.7250370
2026-02-02T01:086.31014-5.3250370
2026-02-02T01:096.11014-5.8250370
2026-02-02T01:106.21014-5.7250370
2026-02-02T01:116.21014-5.4250370
2026-02-02T01:126.21014-5.4260270
2026-02-02T01:136.51014-5.2260270
2026-02-02T01:146.51014-5.5260270
2026-02-02T01:156.51014-5.5260270
2026-02-02T01:166.61014-5.4260270
2026-02-02T01:176.61014-5.4260270
2026-02-02T01:186.61014-5.7260270
2026-02-02T01:196.61014-5.7260270
2026-02-02T01:206.61014-5.7270270
2026-02-02T01:216.61014-5.7270270
2026-02-02T01:226.61014-5.4270270
2026-02-02T01:237.11014-4.9270270
2026-02-02T01:246.91014-5.4270270
2026-02-02T01:257.11014-5.2270270
2026-02-02T01:266.91014-5.4270270
2026-02-02T01:277.01014-5.7270370
2026-02-02T01:286.71014-5.9270270
2026-02-02T01:296.61014-5.7270270
2026-02-02T01:306.71014-5.6270270
2026-02-02T01:316.81014-5.5270270
2026-02-02T01:326.81014-5.5270270
2026-02-02T01:336.81014-5.5270270
2026-02-02T01:347.31014-5.1270270
2026-02-02T01:357.41014-5.3270270
2026-02-02T01:367.51014-5.2270370
2026-02-02T01:377.51014-5.2270270
2026-02-02T01:388.01014-4.8270370
2026-02-02T01:397.71014-5.4260370
2026-02-02T01:407.81014-5.3260370
2026-02-02T01:417.91014-5.2260370
2026-02-02T01:427.91014-5.5260370
2026-02-02T01:438.11014-5.7260370
2026-02-02T01:447.91014-6.2260370
2026-02-02T01:457.71014-6.4270370
2026-02-02T01:467.91014-5.9270270
2026-02-02T01:478.11014-5.7270270
2026-02-02T01:487.71014-6.4280270
2026-02-02T01:497.31014-6.8290270
2026-02-02T01:507.61014-6.1290270
2026-02-02T01:517.61014-6.1300270
2026-02-02T01:527.71014-6.1310270
2026-02-02T01:538.01014-5.8310270
2026-02-02T01:548.21014-5.6320270
2026-02-02T01:557.91014-6.2320270
2026-02-02T01:568.01014-6.1320270
2026-02-02T01:578.61014-5.2320370
2026-02-02T01:588.91014-5.3320370
2026-02-02T01:598.71014-5.9310370
2026-02-02T02:008.51014-6.1300370
2026-02-02T02:018.31014-6.2300370
2026-02-02T02:028.81014-5.4290370
2026-02-02T02:038.11014-6.8290370
2026-02-02T02:048.11014-6.4290370
2026-02-02T02:058.01014-6.1290370
2026-02-02T02:068.31013-5.9290370
2026-02-02T02:078.11013-6.1300370
2026-02-02T02:087.91013-6.2310370
2026-02-02T02:098.41013-5.8310370
2026-02-02T02:108.91013-5.0320370
2026-02-02T02:119.21013-5.1320370
2026-02-02T02:128.91013-5.7320370
2026-02-02T02:138.71013-5.9320270
2026-02-02T02:148.81013-5.8310270
2026-02-02T02:158.81013-6.2310270
2026-02-02T02:168.81013-6.2310270
2026-02-02T02:179.11013-5.9300270
2026-02-02T02:188.91013-6.5300270
2026-02-02T02:199.01013-6.4300270
2026-02-02T02:209.11013-6.3300270
2026-02-02T02:218.71013-6.7300270
2026-02-02T02:228.71013-6.7300270
2026-02-02T02:238.81013-6.6300370
2026-02-02T02:249.41013-5.7300370
2026-02-02T02:259.31013-6.1300370
2026-02-02T02:269.31013-6.1300370
2026-02-02T02:279.11013-6.3300370
2026-02-02T02:289.21013-6.2300370
2026-02-02T02:299.51013-6.0290370
2026-02-02T02:3010.21013-5.3290370
2026-02-02T02:3110.01013-5.9280370
2026-02-02T02:329.51013-6.8280370
2026-02-02T02:339.81013-6.1290370
2026-02-02T02:3410.11013-6.2290370
2026-02-02T02:359.81013-6.5300370
2026-02-02T02:369.71013-6.6300370
2026-02-02T02:3710.31013-5.7300370
2026-02-02T02:3810.31013-6.1290370
2026-02-02T02:3910.11013-6.7290370
2026-02-02T02:409.81013-6.9290370
2026-02-02T02:4110.51013-5.9290370
2026-02-02T02:429.91013-6.9290370
2026-02-02T02:439.91013-6.9290370
2026-02-02T02:449.91013-6.4280370
2026-02-02T02:4510.01013-6.3280370
2026-02-02T02:4610.31013-6.1270370
2026-02-02T02:479.91013-6.9270370
2026-02-02T02:489.91013-6.9280370
2026-02-02T02:499.81013-6.9270270
2026-02-02T02:5010.11013-6.2270370
2026-02-02T02:5110.71013-5.7270370
2026-02-02T02:5210.71013-6.2270370
2026-02-02T02:5310.41012-6.4270370
2026-02-02T02:5410.21012-7.0270370
2026-02-02T02:5510.51012-6.3280370
2026-02-02T02:5610.31012-6.5290370
2026-02-02T02:579.91012-7.3290370
2026-02-02T02:5810.01012-6.8290370
2026-02-02T02:5910.41012-6.4300370
2026-02-02T03:0010.31012-6.9310370
2026-02-02T03:0110.01012-7.2310370
2026-02-02T03:0210.11012-7.1310370
2026-02-02T03:0310.71012-6.2310370
2026-02-02T03:0410.81012-6.1310370
2026-02-02T03:0510.81012-6.5310370
2026-02-02T03:0610.81012-6.5310370
2026-02-02T03:0710.51012-6.8310370
2026-02-02T03:0810.51012-6.8310370
2026-02-02T03:0910.61012-6.7310370
2026-02-02T03:1010.61012-6.7300370
2026-02-02T03:1110.31012-6.9300370
2026-02-02T03:1210.31012-6.9300370
2026-02-02T03:1310.81012-6.5300370
2026-02-02T03:1410.41012-6.9300370
2026-02-02T03:1510.21012-7.0300370
2026-02-02T03:1610.41012-6.4300370
2026-02-02T03:1710.61012-6.2300370
2026-02-02T03:1810.81012-6.1300370
2026-02-02T03:1910.61012-6.7310370
2026-02-02T03:2010.91012-6.0310370
2026-02-02T03:2111.31012-5.6300370
2026-02-02T03:2211.11012-6.2300370
2026-02-02T03:2310.91012-6.4300370
2026-02-02T03:2411.11012-5.8300370
2026-02-02T03:2510.91011-6.4290370
2026-02-02T03:2611.11011-5.8290370
2026-02-02T03:2710.91011-6.0290370
2026-02-02T03:2810.71011-6.6290370
2026-02-02T03:2910.61011-6.7290370
2026-02-02T03:3010.61011-6.2280370
2026-02-02T03:3110.61011-6.2280270
2026-02-02T03:3210.81011-6.1280370
2026-02-02T03:3311.11011-5.4290370
2026-02-02T03:3410.91011-5.5290370
2026-02-02T03:3511.01011-5.5300370
2026-02-02T03:3611.01011-5.5300370
2026-02-02T03:3711.11011-5.4290370
2026-02-02T03:3810.91011-5.5290370
2026-02-02T03:3910.71011-5.7290370
2026-02-02T03:4011.01011-5.5280370
2026-02-02T03:4111.11011-5.4280470
2026-02-02T03:4211.21011-5.3280470
2026-02-02T03:4311.01011-5.9280470
2026-02-02T03:4411.01011-5.5280470
2026-02-02T03:4511.11011-5.4270470
2026-02-02T03:4611.41011-5.1270470
2026-02-02T03:4711.21011-5.7270470
2026-02-02T03:4811.21011-5.7270470
2026-02-02T03:4912.21011-4.4270470
2026-02-02T03:5011.51011-5.9280470
2026-02-02T03:5110.61011-6.7280470
2026-02-02T03:5210.91011-6.0290370
2026-02-02T03:5310.81011-6.1280370
2026-02-02T03:5410.41011-6.4280370
2026-02-02T03:5510.61011-6.2290370
2026-02-02T03:5610.71011-6.2300370
2026-02-02T03:5711.41011-5.1290370
2026-02-02T03:5811.51011-5.9300370
2026-02-02T03:5911.01011-6.8300370
2026-02-02T04:0010.91011-6.9300370
2026-02-02T04:0110.81011-7.0310370
2026-02-02T04:0210.71011-6.6310370
2026-02-02T04:0310.81011-6.5310370
2026-02-02T04:0411.41011-6.0320470
2026-02-02T04:0511.21011-6.6310470
2026-02-02T04:0611.01011-6.8320470
2026-02-02T04:0710.91011-6.9330470
2026-02-02T04:0810.61011-7.1330470
2026-02-02T04:0910.71011-7.1330470
2026-02-02T04:1011.11011-6.2340370
2026-02-02T04:1110.81011-7.0330370
2026-02-02T04:1210.71011-7.1330370
2026-02-02T04:1310.81011-6.5320370
2026-02-02T04:1410.91011-6.4320370
2026-02-02T04:1510.81011-7.0310370
2026-02-02T04:1610.61011-7.1300370
2026-02-02T04:1711.01011-6.8280370
2026-02-02T04:1811.71011-5.7270370
2026-02-02T04:1911.71011-6.2270370
2026-02-02T04:2011.31011-7.0260370
2026-02-02T04:2111.31011-7.0260370
2026-02-02T04:2211.31011-7.0260370
2026-02-02T04:2310.91011-7.4260370
2026-02-02T04:2411.01011-7.3260370
2026-02-02T04:2511.31011-7.0270370
2026-02-02T04:2610.91011-7.4260370
2026-02-02T04:2711.01011-7.3260370
2026-02-02T04:2811.21011-7.1260270
2026-02-02T04:2911.21011-8.1270270
2026-02-02T04:3011.51011-7.3270270
2026-02-02T04:3112.01011-6.9270270
2026-02-02T04:3212.41011-7.1270270
2026-02-02T04:3311.51011-8.9280370
2026-02-02T04:3411.11011-9.2280370
2026-02-02T04:3511.01011-9.3290370
2026-02-02T04:3611.11011-8.7300370
2026-02-02T04:3711.31011-8.5310370
2026-02-02T04:3811.21011-9.2310370
2026-02-02T04:3911.41011-8.4310370
2026-02-02T04:4011.31011-8.5310370
2026-02-02T04:4111.41011-8.4310370
2026-02-02T04:4211.41011-8.4310370
2026-02-02T04:4311.11011-8.7300370
2026-02-02T04:4411.51011-8.4300370
2026-02-02T04:4512.11011-7.3300370
2026-02-02T04:4611.31011-9.1300370
2026-02-02T04:4710.91011-8.9290370
2026-02-02T04:4811.41011-8.4290370
2026-02-02T04:4911.51011-8.4280270
2026-02-02T04:5012.01011-7.9270270
2026-02-02T04:5112.01011-7.9270270
2026-02-02T04:5212.01011-8.5270270
2026-02-02T04:5312.01011-8.5270270
2026-02-02T04:5411.41011-9.5270270
2026-02-02T04:5511.31011-9.6270270
2026-02-02T04:5611.51011-8.9270270
2026-02-02T04:5711.81011-8.7280270
2026-02-02T04:5811.81011-8.7280270
2026-02-02T04:5911.51011-9.5280270
2026-02-02T05:0011.11011-9.8280270
2026-02-02T05:0111.21011-9.2280270
2026-02-02T05:0211.21011-9.7280270
2026-02-02T05:0311.31011-9.1270370
2026-02-02T05:0411.11011-9.8260370
2026-02-02T05:0511.11011-9.2250370
2026-02-02T05:0611.01011-9.3250370
2026-02-02T05:0711.31011-9.1240370
2026-02-02T05:0811.51011-8.9250370
2026-02-02T05:0911.51011-8.9250370
2026-02-02T05:1011.51011-8.9250370
2026-02-02T05:1111.11011-9.2250370
2026-02-02T05:1211.51011-8.9260370
2026-02-02T05:1311.71011-8.7260370
2026-02-02T05:1411.61010-8.8260370
2026-02-02T05:1511.51010-8.9260370
2026-02-02T05:1611.31010-9.1260270
2026-02-02T05:1711.31010-9.1260270
2026-02-02T05:1811.51010-8.9250270
2026-02-02T05:1911.61010-8.8250270
2026-02-02T05:2011.81010-8.7250370
2026-02-02T05:2111.51010-8.9250370
2026-02-02T05:2212.01010-8.5250370
2026-02-02T05:2312.01010-8.5260370
2026-02-02T05:2411.81010-9.2260370
2026-02-02T05:2511.71010-9.3270370
2026-02-02T05:2611.51010-8.9260370
2026-02-02T05:2711.61010-8.8270370
2026-02-02T05:2811.71010-8.7270370
2026-02-02T05:2911.81010-8.7260370
2026-02-02T05:3011.51010-8.9260370
2026-02-02T05:3111.31010-9.1260370
2026-02-02T05:3211.11010-9.2260370
2026-02-02T05:3311.21010-9.2260370
2026-02-02T05:3411.31010-9.1260370
2026-02-02T05:3511.31010-9.1260370
2026-02-02T05:3611.21010-9.2260370
2026-02-02T05:3711.01010-9.3270370
2026-02-02T05:3811.11010-9.2270370
2026-02-02T05:3911.31010-8.5270370
2026-02-02T05:4011.41010-8.4280270
2026-02-02T05:4111.31010-9.1280270
2026-02-02T05:4211.41010-9.0270270
2026-02-02T05:4311.71010-8.2270270
2026-02-02T05:4411.81010-8.7270370
2026-02-02T05:4511.41010-9.0270370
2026-02-02T05:4611.71010-8.2270370
2026-02-02T05:4711.61010-8.3260370
2026-02-02T05:4811.61011-8.8260370
2026-02-02T05:4911.41011-9.0260370
2026-02-02T05:5011.11011-9.2260370
2026-02-02T05:5111.11011-9.2260370
2026-02-02T05:5211.21011-9.2260370
2026-02-02T05:5311.11011-9.2260370
2026-02-02T05:5411.11011-8.7260370
2026-02-02T05:5511.21011-8.6260270
2026-02-02T05:5611.01011-9.3260270
2026-02-02T05:5711.41011-8.4260270
2026-02-02T05:5811.71011-8.2260270
2026-02-02T05:5911.71011-8.2260270
2026-02-02T06:0011.71011-8.2250270
2026-02-02T06:0111.81010-8.1250270
2026-02-02T06:0211.31010-9.1240270
2026-02-02T06:0311.11010-9.2240270
2026-02-02T06:0411.21010-8.6240270
2026-02-02T06:0511.31010-8.5240370
2026-02-02T06:0611.21010-8.6230370
2026-02-02T06:0711.11010-8.7230370
2026-02-02T06:0811.11011-8.7230270
2026-02-02T06:0911.11011-8.7230270
2026-02-02T06:1011.01011-8.8230270
2026-02-02T06:1111.11011-8.7230270
2026-02-02T06:1211.11011-8.7240270
2026-02-02T06:1311.11011-8.7240270
2026-02-02T06:1411.31011-8.5250270
2026-02-02T06:1511.41010-8.4250270
2026-02-02T06:1611.31010-9.1250370
2026-02-02T06:1711.31010-9.1250370
2026-02-02T06:1811.01010-9.3250370
2026-02-02T06:1911.01010-9.3250370
2026-02-02T06:2011.11010-9.2240370
2026-02-02T06:2111.21010-8.6240370
2026-02-02T06:2211.31010-8.5230370
2026-02-02T06:2311.21010-8.6230370
2026-02-02T06:2411.41010-9.0230370
2026-02-02T06:2511.31010-9.1230370
2026-02-02T06:2611.31010-9.1230370
2026-02-02T06:2711.21010-9.2230370
2026-02-02T06:2811.41010-8.4230370
2026-02-02T06:2911.41010-8.4230370
2026-02-02T06:3011.31010-8.5230370
2026-02-02T06:3111.01010-8.8230370
2026-02-02T06:3211.11010-8.7230370
2026-02-02T06:3311.11010-8.7230370
2026-02-02T06:3411.21010-8.6230370
2026-02-02T06:3511.11010-9.2230370
2026-02-02T06:3611.01010-9.3230370
2026-02-02T06:3710.91010-9.4230370
2026-02-02T06:3811.01010-9.3220370
2026-02-02T06:3910.91010-9.4220270
2026-02-02T06:4011.11010-8.7220270
2026-02-02T06:4111.11010-8.7220270
2026-02-02T06:4211.01010-9.3220270
2026-02-02T06:4310.91010-9.4230270
2026-02-02T06:4410.91010-9.4230270
2026-02-02T06:4511.01010-8.8230270
2026-02-02T06:4610.91010-8.9240270
2026-02-02T06:4711.11010-8.7250270
2026-02-02T06:4811.11010-8.7260270
2026-02-02T06:4911.01010-8.8260270
2026-02-02T06:5010.81010-9.0270270
2026-02-02T06:5110.81010-9.0280270
2026-02-02T06:5210.61011-9.1280270
2026-02-02T06:5310.61011-9.1280270
2026-02-02T06:5410.71011-8.5280270
2026-02-02T06:5510.81011-9.0280270
2026-02-02T06:5611.01011-8.8280270
2026-02-02T06:5710.91011-8.9270270
2026-02-02T06:5810.91011-8.9260270
2026-02-02T06:5910.91011-8.9260270
2026-02-02T07:0010.81011-9.0250270
2026-02-02T07:0110.71011-9.0240270
2026-02-02T07:0210.61011-9.1240270
2026-02-02T07:0310.61011-9.1240270
2026-02-02T07:0410.61011-9.1230270
2026-02-02T07:0510.61011-8.6230270
2026-02-02T07:0610.51011-8.7230370
2026-02-02T07:0710.51011-8.7230370
2026-02-02T07:0810.51011-8.7230370
2026-02-02T07:0910.41011-8.8230370
2026-02-02T07:1010.41011-8.8230370
2026-02-02T07:1110.41011-8.8230370
2026-02-02T07:1210.41011-8.8230270
2026-02-02T07:1310.41011-8.8230270
2026-02-02T07:1410.41011-8.8230270
2026-02-02T07:1510.41011-8.8240270
2026-02-02T07:1610.31011-8.4240270
2026-02-02T07:1710.11011-8.0240270
2026-02-02T07:1810.01011-7.7240270
2026-02-02T07:1910.11011-7.6240270
2026-02-02T07:2010.11011-7.6240270
2026-02-02T07:2110.21011-8.0250270
2026-02-02T07:2210.21011-8.0250270
2026-02-02T07:2310.21011-8.0250270
2026-02-02T07:2410.11011-7.6250370
2026-02-02T07:2510.01011-7.7260370
2026-02-02T07:2610.11011-8.0260370
2026-02-02T07:279.91011-7.7260370
2026-02-02T07:289.91011-7.7260370
2026-02-02T07:2910.01011-8.1260370
2026-02-02T07:309.81011-7.8270270
2026-02-02T07:319.81011-7.4270270
2026-02-02T07:329.91011-7.7270370
2026-02-02T07:3310.01011-8.1270370
2026-02-02T07:349.91011-8.2270370
2026-02-02T07:359.71011-7.9270370
2026-02-02T07:369.91011-8.2270370
2026-02-02T07:379.91011-8.2270370
2026-02-02T07:389.91011-8.2270370
2026-02-02T07:3910.01011-8.6270370
2026-02-02T07:409.91011-8.2270370
2026-02-02T07:419.71011-8.4270370
2026-02-02T07:429.81011-8.3270370
2026-02-02T07:439.91011-8.2260370
2026-02-02T07:449.91011-8.2260370
2026-02-02T07:4510.01011-8.6260270
2026-02-02T07:469.81011-8.3260270
2026-02-02T07:479.81011-8.3260270
2026-02-02T07:489.61011-8.0260270
2026-02-02T07:499.71011-8.4260270
2026-02-02T07:509.81011-8.3260270
2026-02-02T07:519.81011-8.3260270
2026-02-02T07:529.91011-8.7260270
2026-02-02T07:539.91011-8.7260270
2026-02-02T07:549.61011-8.5260270
2026-02-02T07:559.61011-8.0270270
2026-02-02T07:569.41011-8.2270270
2026-02-02T07:579.41011-7.7270270
2026-02-02T07:589.41011-8.2270270
2026-02-02T07:599.31011-7.8270270
2026-02-02T08:009.31011-7.8270270
2026-02-02T08:019.41011-8.2270170
2026-02-02T08:029.61011-8.0270170
2026-02-02T08:039.51011-8.1270170
2026-02-02T08:049.51011-8.1270170
2026-02-02T08:059.41011-8.2260170
2026-02-02T08:069.51011-8.1260270
2026-02-02T08:079.41011-8.2260270
2026-02-02T08:089.21011-8.4250270
2026-02-02T08:099.21011-7.9250270
2026-02-02T08:109.21011-7.9250270
2026-02-02T08:119.41011-8.2250270
2026-02-02T08:129.31011-7.8250270
2026-02-02T08:139.21011-7.9250270
2026-02-02T08:149.31011-7.8250270
2026-02-02T08:159.21011-7.9250270
2026-02-02T08:169.01011-8.1260270
2026-02-02T08:179.01011-8.1260270
2026-02-02T08:189.31011-7.8260270
2026-02-02T08:199.31011-7.8260270
2026-02-02T08:209.01011-8.1260270
2026-02-02T08:219.01011-7.6260270
2026-02-02T08:229.21011-7.9260270
2026-02-02T08:238.91011-7.7260270
2026-02-02T08:248.81011-7.8260270
2026-02-02T08:258.91011-7.7260270
2026-02-02T08:269.11011-8.0270270
2026-02-02T08:278.91011-7.7270270
2026-02-02T08:288.81011-7.8270270
2026-02-02T08:298.91011-7.7270270
2026-02-02T08:309.01011-8.1270270
2026-02-02T08:318.91011-8.2270270
2026-02-02T08:328.91011-7.7270270
2026-02-02T08:338.91011-8.2270270
2026-02-02T08:348.81011-7.8270270
2026-02-02T08:358.81011-7.8280270
2026-02-02T08:368.81011-7.8280270
2026-02-02T08:378.61011-8.0280270
2026-02-02T08:388.31011-7.8290270
2026-02-02T08:398.21011-7.5290270
2026-02-02T08:408.01011-7.3300270
2026-02-02T08:418.21011-7.1310270
2026-02-02T08:428.31011-6.6320270
2026-02-02T08:438.21011-6.3320270
2026-02-02T08:448.51011-6.5330270
2026-02-02T08:458.81011-6.6340270
2026-02-02T08:468.81011-6.6340270
2026-02-02T08:478.71011-6.3350370
2026-02-02T08:488.71011-6.3350370
2026-02-02T08:498.71011-5.9360370
2026-02-02T08:508.61011-6.0360370
2026-02-02T08:518.61011-5.6360370
2026-02-02T08:528.61012-5.610370
2026-02-02T08:538.51012-5.3360270
2026-02-02T08:548.51012-5.310270
2026-02-02T08:558.31012-5.510270
2026-02-02T08:568.21012-5.620270
2026-02-02T08:578.11012-5.720270
2026-02-02T08:588.11012-5.320270
2026-02-02T08:598.11012-5.320270
2026-02-02T09:008.11012-4.720270
2026-02-02T09:018.11012-4.330270
2026-02-02T09:028.31012-4.230270
2026-02-02T09:038.31012-4.240270
2026-02-02T09:048.31012-4.250270
2026-02-02T09:058.21012-3.950270
2026-02-02T09:068.01012-4.150270
2026-02-02T09:078.11012-4.060270
2026-02-02T09:087.91012-3.960270
2026-02-02T09:097.91012-3.660270
2026-02-02T09:108.11012-3.160270
2026-02-02T09:118.01012-2.960270
2026-02-02T09:127.91012-2.750270
2026-02-02T09:137.91012-2.740270
2026-02-02T09:147.91012-2.730270
2026-02-02T09:157.81012-2.820270
2026-02-02T09:167.91012-2.420270
2026-02-02T09:177.81012-2.520270
2026-02-02T09:187.61012-2.720270
2026-02-02T09:197.51012-2.820270

Only the first 2000 rows were shown. To view the complete dataset, download it as tab-delimited text. You can still view the full matrix in your browser, but be aware that this may crash the browser due to the huge size.